Wetterstion Hohenwalde 74m ?ber NN
Wetterdaten: Montag / Dienstag, 28.05.2024
Datum Zeit Temp. A. 5cm TDach Feuchte A. Luftdruck Regen Wind Richtung Richtung Sonnenschein Solar Taupunkt Windb?en
27.05.2024 23:00 16,9 ?C 17,2 ?C 16,5 ?C 91 % 1015,1 hPa 0,0 l/m? 4,1 km/h (1 Bft) O 91 ? 0 min 0 W/m? 15,4 ?C 9,7 km/h (2 Bft)
27.05.2024 23:03 16,8 ?C 17,2 ?C 16,5 ?C 91 % 1015,0 hPa 0,0 l/m? 1,2 km/h (1 Bft) O-NO 76 ? 0 min 0 W/m? 15,3 ?C 4,8 km/h (1 Bft)
27.05.2024 23:06 16,8 ?C 17,2 ?C 16,4 ?C 91 % 1015,0 hPa 0,0 l/m? 2,7 km/h (1 Bft) O-NO 74 ? 0 min 0 W/m? 15,3 ?C 4,8 km/h (1 Bft)
27.05.2024 23:09 16,8 ?C 17,1 ?C 16,4 ?C 91 % 1015,1 hPa 0,0 l/m? 3,1 km/h (1 Bft) O-NO 71 ? 0 min 0 W/m? 15,3 ?C 4,8 km/h (1 Bft)
27.05.2024 23:12 16,8 ?C 17,1 ?C 16,4 ?C 91 % 1015,0 hPa 0,0 l/m? 1,3 km/h (1 Bft) O-NO 72 ? 0 min 0 W/m? 15,3 ?C 3,2 km/h (1 Bft)
27.05.2024 23:15 16,8 ?C 17,0 ?C 16,4 ?C 91 % 1015,0 hPa 0,0 l/m? 2,9 km/h (1 Bft) O-NO 70 ? 0 min 0 W/m? 15,3 ?C 4,8 km/h (1 Bft)
27.05.2024 23:18 16,8 ?C 17,0 ?C 16,3 ?C 91 % 1015,0 hPa 0,0 l/m? 2,8 km/h (1 Bft) O-NO 59 ? 0 min 0 W/m? 15,3 ?C 6,4 km/h (2 Bft)
27.05.2024 23:21 16,8 ?C 17,0 ?C 16,3 ?C 91 % 1014,9 hPa 0,0 l/m? 2,0 km/h (1 Bft) NO 52 ? 0 min 0 W/m? 15,3 ?C 6,4 km/h (2 Bft)
27.05.2024 23:24 16,8 ?C 17,0 ?C 16,4 ?C 91 % 1014,8 hPa 0,0 l/m? 3,1 km/h (1 Bft) NO 53 ? 0 min 0 W/m? 15,3 ?C 6,4 km/h (2 Bft)
27.05.2024 23:27 16,7 ?C 17,0 ?C 16,4 ?C 91 % 1014,8 hPa 0,0 l/m? 3,6 km/h (1 Bft) O-NO 57 ? 0 min 0 W/m? 15,2 ?C 6,4 km/h (2 Bft)
27.05.2024 23:30 16,7 ?C 16,9 ?C 16,4 ?C 91 % 1014,8 hPa 0,0 l/m? 3,8 km/h (1 Bft) O-NO 60 ? 0 min 0 W/m? 15,2 ?C 6,4 km/h (2 Bft)
27.05.2024 23:33 16,7 ?C 16,9 ?C 16,4 ?C 91 % 1014,8 hPa 0,0 l/m? 4,2 km/h (1 Bft) O-NO 66 ? 0 min 0 W/m? 15,2 ?C 6,4 km/h (2 Bft)
27.05.2024 23:36 16,7 ?C 16,8 ?C 16,4 ?C 91 % 1014,8 hPa 0,0 l/m? 4,3 km/h (1 Bft) O-NO 62 ? 0 min 0 W/m? 15,2 ?C 9,7 km/h (2 Bft)
27.05.2024 23:39 16,7 ?C 16,8 ?C 16,4 ?C 91 % 1014,8 hPa 0,0 l/m? 6,6 km/h (2 Bft) O-NO 65 ? 0 min 0 W/m? 15,2 ?C 11,3 km/h (2 Bft)
27.05.2024 23:42 16,7 ?C 16,8 ?C 16,4 ?C 91 % 1014,8 hPa 0,0 l/m? 4,4 km/h (1 Bft) O-NO 65 ? 0 min 0 W/m? 15,2 ?C 9,7 km/h (2 Bft)
27.05.2024 23:45 16,6 ?C 16,8 ?C 16,3 ?C 91 % 1014,8 hPa 0,0 l/m? 4,0 km/h (1 Bft) O-NO 73 ? 0 min 0 W/m? 15,1 ?C 6,4 km/h (2 Bft)
27.05.2024 23:48 16,6 ?C 16,7 ?C 16,3 ?C 91 % 1014,9 hPa 0,0 l/m? 5,1 km/h (1 Bft) O-NO 71 ? 0 min 0 W/m? 15,1 ?C 9,7 km/h (2 Bft)
27.05.2024 23:51 16,6 ?C 16,7 ?C 16,3 ?C 91 % 1014,8 hPa 0,0 l/m? 4,5 km/h (1 Bft) O 85 ? 0 min 0 W/m? 15,1 ?C 6,4 km/h (2 Bft)
27.05.2024 23:54 16,5 ?C 16,8 ?C 16,3 ?C 91 % 1014,8 hPa 0,0 l/m? 4,0 km/h (1 Bft) O 82 ? 0 min 0 W/m? 15,0 ?C 9,7 km/h (2 Bft)
27.05.2024 23:57 16,5 ?C 16,8 ?C 16,2 ?C 91 % 1014,8 hPa 0,0 l/m? 4,3 km/h (1 Bft) O 82 ? 0 min 0 W/m? 15,0 ?C 9,7 km/h (2 Bft)
28.05.2024 00:00 16,5 ?C 16,8 ?C 16,2 ?C 91 % 1014,7 hPa 0,0 l/m? 4,2 km/h (1 Bft) O 81 ? 0 min 0 W/m? 15,0 ?C 9,7 km/h (2 Bft)
28.05.2024 00:03 16,4 ?C 16,7 ?C 16,2 ?C 91 % 1014,7 hPa 0,0 l/m? 6,3 km/h (2 Bft) O 79 ? 0 min 0 W/m? 14,9 ?C 11,3 km/h (2 Bft)
28.05.2024 00:06 16,4 ?C 16,6 ?C 16,2 ?C 91 % 1014,7 hPa 0,0 l/m? 5,1 km/h (1 Bft) O-NO 77 ? 0 min 0 W/m? 14,9 ?C 9,7 km/h (2 Bft)
28.05.2024 00:09 16,4 ?C 16,5 ?C 16,2 ?C 91 % 1014,7 hPa 0,0 l/m? 7,2 km/h (2 Bft) O-NO 75 ? 0 min 0 W/m? 14,9 ?C 11,3 km/h (2 Bft)
28.05.2024 00:12 16,4 ?C 16,5 ?C 16,2 ?C 91 % 1014,6 hPa 0,0 l/m? 6,5 km/h (2 Bft) O-NO 67 ? 0 min 0 W/m? 14,9 ?C 12,9 km/h (3 Bft)
28.05.2024 00:15 16,4 ?C 16,4 ?C 16,1 ?C 90 % 1014,6 hPa 0,0 l/m? 6,3 km/h (2 Bft) O-NO 60 ? 0 min 0 W/m? 14,8 ?C 12,9 km/h (3 Bft)
28.05.2024 00:18 16,3 ?C 16,3 ?C 16,2 ?C 90 % 1014,6 hPa 0,0 l/m? 8,0 km/h (2 Bft) O-NO 71 ? 0 min 0 W/m? 14,7 ?C 12,9 km/h (3 Bft)
28.05.2024 00:21 16,3 ?C 16,3 ?C 16,3 ?C 90 % 1014,6 hPa 0,0 l/m? 8,4 km/h (2 Bft) O-NO 74 ? 0 min 0 W/m? 14,7 ?C 14,5 km/h (3 Bft)
28.05.2024 00:24 16,3 ?C 16,3 ?C 16,3 ?C 90 % 1014,5 hPa 0,0 l/m? 8,7 km/h (2 Bft) O-NO 72 ? 0 min 0 W/m? 14,7 ?C 12,9 km/h (3 Bft)
28.05.2024 00:27 16,3 ?C 16,2 ?C 16,3 ?C 90 % 1014,5 hPa 0,0 l/m? 8,6 km/h (2 Bft) O-NO 69 ? 0 min 0 W/m? 14,7 ?C 17,7 km/h (3 Bft)
28.05.2024 00:30 16,3 ?C 16,2 ?C 16,3 ?C 90 % 1014,5 hPa 0,0 l/m? 8,2 km/h (2 Bft) O-NO 70 ? 0 min 0 W/m? 14,7 ?C 14,5 km/h (3 Bft)
28.05.2024 00:33 16,3 ?C 16,2 ?C 16,2 ?C 90 % 1014,5 hPa 0,0 l/m? 8,2 km/h (2 Bft) O-NO 74 ? 0 min 0 W/m? 14,7 ?C 12,9 km/h (3 Bft)
28.05.2024 00:36 16,3 ?C 16,2 ?C 16,1 ?C 90 % 1014,4 hPa 0,0 l/m? 7,1 km/h (2 Bft) O-NO 74 ? 0 min 0 W/m? 14,7 ?C 14,5 km/h (3 Bft)
28.05.2024 00:39 16,3 ?C 16,1 ?C 16,1 ?C 89 % 1014,5 hPa 0,0 l/m? 8,7 km/h (2 Bft) O 79 ? 0 min 0 W/m? 14,5 ?C 14,5 km/h (3 Bft)
28.05.2024 00:42 16,2 ?C 16,2 ?C 16,1 ?C 89 % 1014,5 hPa 0,0 l/m? 8,7 km/h (2 Bft) O 91 ? 0 min 0 W/m? 14,4 ?C 14,5 km/h (3 Bft)
28.05.2024 00:45 16,2 ?C 16,2 ?C 16,0 ?C 89 % 1014,6 hPa 0,0 l/m? 6,5 km/h (2 Bft) O-SO 105 ? 0 min 0 W/m? 14,4 ?C 11,3 km/h (2 Bft)
28.05.2024 00:48 16,1 ?C 16,3 ?C 15,9 ?C 89 % 1014,5 hPa 0,0 l/m? 6,8 km/h (2 Bft) O-SO 107 ? 0 min 0 W/m? 14,3 ?C 14,5 km/h (3 Bft)
28.05.2024 00:51 16,1 ?C 16,2 ?C 15,9 ?C 89 % 1014,5 hPa 0,0 l/m? 6,9 km/h (2 Bft) O 86 ? 0 min 0 W/m? 14,3 ?C 14,5 km/h (3 Bft)
28.05.2024 00:54 16,1 ?C 16,2 ?C 15,9 ?C 89 % 1014,4 hPa 0,0 l/m? 8,8 km/h (2 Bft) O 82 ? 0 min 0 W/m? 14,3 ?C 14,5 km/h (3 Bft)
28.05.2024 00:57 16,1 ?C 16,1 ?C 15,9 ?C 89 % 1014,4 hPa 0,0 l/m? 9,6 km/h (2 Bft) O 83 ? 0 min 0 W/m? 14,3 ?C 14,5 km/h (3 Bft)
28.05.2024 01:00 16,1 ?C 16,1 ?C 15,9 ?C 90 % 1014,3 hPa 0,0 l/m? 9,5 km/h (2 Bft) O 84 ? 0 min 0 W/m? 14,5 ?C 14,5 km/h (3 Bft)
28.05.2024 01:03 16,1 ?C 16,2 ?C 15,8 ?C 90 % 1014,3 hPa 0,0 l/m? 8,1 km/h (2 Bft) O 86 ? 0 min 0 W/m? 14,5 ?C 12,9 km/h (3 Bft)
28.05.2024 01:06 16,0 ?C 16,1 ?C 15,8 ?C 90 % 1014,3 hPa 0,0 l/m? 8,6 km/h (2 Bft) O 84 ? 0 min 0 W/m? 14,4 ?C 14,5 km/h (3 Bft)
28.05.2024 01:09 16,0 ?C 16,0 ?C 15,7 ?C 90 % 1014,2 hPa 0,0 l/m? 7,6 km/h (2 Bft) O-NO 75 ? 0 min 0 W/m? 14,4 ?C 12,9 km/h (3 Bft)
28.05.2024 01:12 16,0 ?C 16,0 ?C 15,7 ?C 90 % 1014,1 hPa 0,0 l/m? 6,4 km/h (2 Bft) O 80 ? 0 min 0 W/m? 14,4 ?C 14,5 km/h (3 Bft)
28.05.2024 01:15 16,0 ?C 15,9 ?C 15,7 ?C 90 % 1014,2 hPa 0,0 l/m? 8,6 km/h (2 Bft) O 81 ? 0 min 0 W/m? 14,4 ?C 12,9 km/h (3 Bft)
28.05.2024 01:18 15,9 ?C 16,0 ?C 15,6 ?C 90 % 1014,2 hPa 0,0 l/m? 5,8 km/h (2 Bft) O 89 ? 0 min 0 W/m? 14,3 ?C 11,3 km/h (2 Bft)
28.05.2024 01:21 15,9 ?C 16,0 ?C 15,5 ?C 90 % 1014,2 hPa 0,0 l/m? 4,9 km/h (1 Bft) O 93 ? 0 min 0 W/m? 14,3 ?C 9,7 km/h (2 Bft)
28.05.2024 01:24 15,8 ?C 16,0 ?C 15,5 ?C 90 % 1014,2 hPa 0,0 l/m? 5,8 km/h (2 Bft) O 89 ? 0 min 0 W/m? 14,2 ?C 11,3 km/h (2 Bft)
28.05.2024 01:27 15,8 ?C 15,9 ?C 15,4 ?C 90 % 1014,3 hPa 0,0 l/m? 4,7 km/h (1 Bft) O 92 ? 0 min 0 W/m? 14,2 ?C 9,7 km/h (2 Bft)
28.05.2024 01:30 15,8 ?C 15,8 ?C 15,4 ?C 90 % 1014,2 hPa 0,0 l/m? 6,7 km/h (2 Bft) O 83 ? 0 min 0 W/m? 14,2 ?C 11,3 km/h (2 Bft)
28.05.2024 01:33 15,7 ?C 15,7 ?C 15,4 ?C 90 % 1014,2 hPa 0,0 l/m? 8,2 km/h (2 Bft) O 80 ? 0 min 0 W/m? 14,1 ?C 12,9 km/h (3 Bft)
28.05.2024 01:36 15,7 ?C 15,7 ?C 15,4 ?C 90 % 1014,2 hPa 0,0 l/m? 8,7 km/h (2 Bft) O 81 ? 0 min 0 W/m? 14,1 ?C 12,9 km/h (3 Bft)
28.05.2024 01:39 15,7 ?C 15,7 ?C 15,4 ?C 90 % 1014,2 hPa 0,0 l/m? 8,4 km/h (2 Bft) O 99 ? 0 min 0 W/m? 14,1 ?C 14,5 km/h (3 Bft)
28.05.2024 01:42 15,7 ?C 15,7 ?C 15,4 ?C 90 % 1014,1 hPa 0,0 l/m? 6,9 km/h (2 Bft) O 89 ? 0 min 0 W/m? 14,1 ?C 12,9 km/h (3 Bft)
28.05.2024 01:45 15,7 ?C 15,8 ?C 15,3 ?C 90 % 1014,1 hPa 0,0 l/m? 3,3 km/h (1 Bft) O 96 ? 0 min 0 W/m? 14,1 ?C 6,4 km/h (2 Bft)
28.05.2024 01:48 15,6 ?C 15,8 ?C 15,3 ?C 90 % 1014,0 hPa 0,0 l/m? 5,7 km/h (2 Bft) O-SO 108 ? 0 min 0 W/m? 14,0 ?C 9,7 km/h (2 Bft)
28.05.2024 01:51 15,6 ?C 15,8 ?C 15,3 ?C 90 % 1014,0 hPa 0,0 l/m? 5,0 km/h (1 Bft) O 90 ? 0 min 0 W/m? 14,0 ?C 9,7 km/h (2 Bft)
28.05.2024 01:54 15,6 ?C 15,9 ?C 15,4 ?C 90 % 1013,9 hPa 0,0 l/m? 6,2 km/h (2 Bft) O 87 ? 0 min 0 W/m? 14,0 ?C 11,3 km/h (2 Bft)
28.05.2024 01:57 15,6 ?C 15,8 ?C 15,3 ?C 90 % 1014,0 hPa 0,0 l/m? 5,3 km/h (1 Bft) O-SO 106 ? 0 min 0 W/m? 14,0 ?C 9,7 km/h (2 Bft)
28.05.2024 02:00 15,6 ?C 15,6 ?C 15,2 ?C 90 % 1013,9 hPa 0,0 l/m? 5,2 km/h (1 Bft) O 97 ? 0 min 0 W/m? 14,0 ?C 12,9 km/h (3 Bft)
28.05.2024 02:03 15,5 ?C 15,7 ?C 15,2 ?C 90 % 1013,9 hPa 0,0 l/m? 5,6 km/h (2 Bft) O 95 ? 0 min 0 W/m? 13,9 ?C 9,7 km/h (2 Bft)
28.05.2024 02:06 15,4 ?C 15,6 ?C 15,1 ?C 90 % 1013,8 hPa 0,0 l/m? 4,6 km/h (1 Bft) O 100 ? 0 min 0 W/m? 13,8 ?C 8,0 km/h (2 Bft)
28.05.2024 02:09 15,4 ?C 15,5 ?C 15,1 ?C 90 % 1013,8 hPa 0,0 l/m? 5,2 km/h (1 Bft) O 90 ? 0 min 0 W/m? 13,8 ?C 9,7 km/h (2 Bft)
28.05.2024 02:12 15,3 ?C 15,4 ?C 15,1 ?C 90 % 1013,8 hPa 0,0 l/m? 6,3 km/h (2 Bft) O 92 ? 0 min 0 W/m? 13,7 ?C 11,3 km/h (2 Bft)
28.05.2024 02:15 15,3 ?C 15,4 ?C 15,1 ?C 90 % 1013,8 hPa 0,0 l/m? 5,5 km/h (2 Bft) O 94 ? 0 min 0 W/m? 13,7 ?C 12,9 km/h (3 Bft)
28.05.2024 02:18 15,3 ?C 15,5 ?C 15,0 ?C 90 % 1013,8 hPa 0,0 l/m? 4,6 km/h (1 Bft) O-SO 107 ? 0 min 0 W/m? 13,7 ?C 11,3 km/h (2 Bft)
28.05.2024 02:21 15,3 ?C 15,4 ?C 15,0 ?C 90 % 1013,8 hPa 0,0 l/m? 5,2 km/h (1 Bft) O-SO 106 ? 0 min 0 W/m? 13,7 ?C 12,9 km/h (3 Bft)
28.05.2024 02:24 15,2 ?C 15,3 ?C 15,0 ?C 90 % 1013,8 hPa 0,0 l/m? 6,3 km/h (2 Bft) O-SO 108 ? 0 min 0 W/m? 13,6 ?C 9,7 km/h (2 Bft)
28.05.2024 02:27 15,3 ?C 15,4 ?C 15,1 ?C 90 % 1013,8 hPa 0,0 l/m? 6,3 km/h (2 Bft) O-SO 110 ? 0 min 0 W/m? 13,7 ?C 11,3 km/h (2 Bft)
28.05.2024 02:30 15,2 ?C 15,4 ?C 15,0 ?C 90 % 1013,8 hPa 0,0 l/m? 6,3 km/h (2 Bft) O-SO 110 ? 0 min 0 W/m? 13,6 ?C 12,9 km/h (3 Bft)
28.05.2024 02:33 15,2 ?C 15,4 ?C 15,0 ?C 90 % 1013,7 hPa 0,0 l/m? 4,1 km/h (1 Bft) O-SO 109 ? 0 min 0 W/m? 13,6 ?C 9,7 km/h (2 Bft)
28.05.2024 02:36 15,2 ?C 15,3 ?C 14,9 ?C 90 % 1013,7 hPa 0,0 l/m? 5,4 km/h (2 Bft) O-SO 106 ? 0 min 0 W/m? 13,6 ?C 9,7 km/h (2 Bft)
28.05.2024 02:39 15,2 ?C 15,3 ?C 14,9 ?C 90 % 1013,8 hPa 0,0 l/m? 5,0 km/h (1 Bft) O-SO 110 ? 0 min 0 W/m? 13,6 ?C 8,0 km/h (2 Bft)
28.05.2024 02:42 15,1 ?C 15,2 ?C 14,8 ?C 90 % 1013,8 hPa 0,0 l/m? 5,7 km/h (2 Bft) O-SO 114 ? 0 min 0 W/m? 13,5 ?C 8,0 km/h (2 Bft)
28.05.2024 02:45 15,1 ?C 15,2 ?C 14,8 ?C 90 % 1013,7 hPa 0,0 l/m? 5,6 km/h (2 Bft) O-SO 122 ? 0 min 0 W/m? 13,5 ?C 8,0 km/h (2 Bft)
28.05.2024 02:48 15,1 ?C 15,2 ?C 14,9 ?C 90 % 1013,7 hPa 0,0 l/m? 6,1 km/h (2 Bft) SO 127 ? 0 min 0 W/m? 13,5 ?C 9,7 km/h (2 Bft)
28.05.2024 02:51 15,1 ?C 15,2 ?C 14,8 ?C 91 % 1013,8 hPa 0,0 l/m? 4,6 km/h (1 Bft) SO 138 ? 0 min 0 W/m? 13,6 ?C 8,0 km/h (2 Bft)
28.05.2024 02:54 15,1 ?C 15,2 ?C 14,7 ?C 91 % 1013,8 hPa 0,0 l/m? 4,7 km/h (1 Bft) SO 135 ? 0 min 0 W/m? 13,6 ?C 6,4 km/h (2 Bft)
28.05.2024 02:57 15,1 ?C 15,2 ?C 14,7 ?C 90 % 1013,8 hPa 0,0 l/m? 4,6 km/h (1 Bft) SO 128 ? 0 min 0 W/m? 13,5 ?C 6,4 km/h (2 Bft)
28.05.2024 03:00 15,0 ?C 15,1 ?C 14,6 ?C 91 % 1013,7 hPa 0,0 l/m? 3,3 km/h (1 Bft) O-SO 114 ? 0 min 0 W/m? 13,5 ?C 6,4 km/h (2 Bft)
28.05.2024 03:03 14,9 ?C 15,2 ?C 14,6 ?C 91 % 1013,7 hPa 0,0 l/m? 2,4 km/h (1 Bft) O-SO 113 ? 0 min 0 W/m? 13,4 ?C 6,4 km/h (2 Bft)
28.05.2024 03:06 14,9 ?C 15,2 ?C 14,6 ?C 91 % 1013,7 hPa 0,0 l/m? 2,3 km/h (1 Bft) O-SO 107 ? 0 min 0 W/m? 13,4 ?C 4,8 km/h (1 Bft)
28.05.2024 03:09 14,9 ?C 15,2 ?C 14,6 ?C 91 % 1013,6 hPa 0,0 l/m? 2,4 km/h (1 Bft) O-SO 106 ? 0 min 0 W/m? 13,4 ?C 4,8 km/h (1 Bft)
28.05.2024 03:12 14,9 ?C 15,3 ?C 14,6 ?C 91 % 1013,7 hPa 0,0 l/m? 2,9 km/h (1 Bft) O-SO 113 ? 0 min 0 W/m? 13,4 ?C 4,8 km/h (1 Bft)
28.05.2024 03:15 14,9 ?C 15,3 ?C 14,6 ?C 91 % 1013,6 hPa 0,0 l/m? 4,6 km/h (1 Bft) O-SO 113 ? 0 min 0 W/m? 13,4 ?C 6,4 km/h (2 Bft)
28.05.2024 03:18 14,9 ?C 15,2 ?C 14,7 ?C 91 % 1013,6 hPa 0,0 l/m? 5,3 km/h (1 Bft) O-SO 114 ? 0 min 0 W/m? 13,4 ?C 8,0 km/h (2 Bft)
28.05.2024 03:21 14,9 ?C 15,2 ?C 14,7 ?C 91 % 1013,6 hPa 0,0 l/m? 6,1 km/h (2 Bft) O-SO 108 ? 0 min 0 W/m? 13,4 ?C 9,7 km/h (2 Bft)
28.05.2024 03:24 14,9 ?C 15,2 ?C 14,7 ?C 91 % 1013,5 hPa 0,0 l/m? 4,7 km/h (1 Bft) O-SO 113 ? 0 min 0 W/m? 13,4 ?C 6,4 km/h (2 Bft)
28.05.2024 03:27 14,9 ?C 15,2 ?C 14,7 ?C 91 % 1013,6 hPa 0,0 l/m? 6,4 km/h (2 Bft) O-SO 114 ? 0 min 0 W/m? 13,4 ?C 11,3 km/h (2 Bft)
28.05.2024 03:30 14,9 ?C 15,4 ?C 14,8 ?C 91 % 1013,5 hPa 0,0 l/m? 5,7 km/h (2 Bft) O-SO 111 ? 0 min 0 W/m? 13,4 ?C 8,0 km/h (2 Bft)
28.05.2024 03:33 15,0 ?C 15,4 ?C 14,8 ?C 91 % 1013,6 hPa 0,0 l/m? 5,7 km/h (2 Bft) SO 127 ? 0 min 0 W/m? 13,5 ?C 8,0 km/h (2 Bft)
28.05.2024 03:36 15,0 ?C 15,4 ?C 14,8 ?C 91 % 1013,5 hPa 0,0 l/m? 3,7 km/h (1 Bft) O-SO 122 ? 0 min 0 W/m? 13,5 ?C 6,4 km/h (2 Bft)
28.05.2024 03:39 15,0 ?C 15,5 ?C 14,9 ?C 91 % 1013,5 hPa 0,0 l/m? 4,7 km/h (1 Bft) O-SO 112 ? 0 min 0 W/m? 13,5 ?C 6,4 km/h (2 Bft)
28.05.2024 03:42 15,0 ?C 15,5 ?C 14,9 ?C 91 % 1013,5 hPa 0,0 l/m? 5,2 km/h (1 Bft) O-SO 121 ? 0 min 0 W/m? 13,5 ?C 8,0 km/h (2 Bft)
28.05.2024 03:45 15,1 ?C 15,6 ?C 15,0 ?C 91 % 1013,5 hPa 0,0 l/m? 4,0 km/h (1 Bft) O-SO 122 ? 0 min 0 W/m? 13,6 ?C 6,4 km/h (2 Bft)
28.05.2024 03:48 15,1 ?C 15,6 ?C 14,9 ?C 91 % 1013,6 hPa 0,0 l/m? 3,0 km/h (1 Bft) SO 130 ? 0 min 0 W/m? 13,6 ?C 4,8 km/h (1 Bft)
28.05.2024 03:51 15,1 ?C 15,5 ?C 14,9 ?C 91 % 1013,6 hPa 0,0 l/m? 3,5 km/h (1 Bft) SO 130 ? 0 min 0 W/m? 13,6 ?C 6,4 km/h (2 Bft)
28.05.2024 03:54 15,0 ?C 15,6 ?C 14,8 ?C 91 % 1013,5 hPa 0,0 l/m? 3,5 km/h (1 Bft) O-SO 121 ? 0 min 0 W/m? 13,5 ?C 4,8 km/h (1 Bft)
28.05.2024 03:57 15,0 ?C 15,5 ?C 14,8 ?C 91 % 1013,5 hPa 0,0 l/m? 4,5 km/h (1 Bft) O-SO 120 ? 0 min 0 W/m? 13,5 ?C 6,4 km/h (2 Bft)
28.05.2024 04:00 15,0 ?C 15,5 ?C 14,7 ?C 91 % 1013,5 hPa 0,0 l/m? 3,4 km/h (1 Bft) O 99 ? 0 min 0 W/m? 13,5 ?C 4,8 km/h (1 Bft)
28.05.2024 04:03 15,0 ?C 15,4 ?C 14,7 ?C 91 % 1013,4 hPa 0,0 l/m? 3,5 km/h (1 Bft) O 101 ? 0 min 0 W/m? 13,5 ?C 6,4 km/h (2 Bft)
28.05.2024 04:06 14,9 ?C 15,4 ?C 14,7 ?C 91 % 1013,3 hPa 0,0 l/m? 5,0 km/h (1 Bft) O 101 ? 0 min 0 W/m? 13,4 ?C 8,0 km/h (2 Bft)
28.05.2024 04:09 14,9 ?C 15,4 ?C 14,7 ?C 91 % 1013,3 hPa 0,0 l/m? 3,5 km/h (1 Bft) O-SO 111 ? 0 min 0 W/m? 13,4 ?C 6,4 km/h (2 Bft)
28.05.2024 04:12 14,9 ?C 15,3 ?C 14,7 ?C 91 % 1013,3 hPa 0,0 l/m? 4,8 km/h (1 Bft) O-SO 110 ? 0 min 0 W/m? 13,4 ?C 8,0 km/h (2 Bft)
28.05.2024 04:15 14,9 ?C 15,2 ?C 14,7 ?C 92 % 1013,3 hPa 0,0 l/m? 4,3 km/h (1 Bft) O-SO 114 ? 0 min 0 W/m? 13,6 ?C 6,4 km/h (2 Bft)
28.05.2024 04:18 14,9 ?C 15,3 ?C 14,6 ?C 92 % 1013,3 hPa 0,0 l/m? 3,6 km/h (1 Bft) O-SO 103 ? 0 min 0 W/m? 13,6 ?C 4,8 km/h (1 Bft)
28.05.2024 04:21 14,8 ?C 15,3 ?C 14,6 ?C 91 % 1013,3 hPa 0,0 l/m? 3,1 km/h (1 Bft) O-SO 109 ? 0 min 0 W/m? 13,3 ?C 6,4 km/h (2 Bft)
28.05.2024 04:24 14,8 ?C 15,2 ?C 14,6 ?C 91 % 1013,4 hPa 0,0 l/m? 4,3 km/h (1 Bft) O-SO 115 ? 0 min 0 W/m? 13,3 ?C 6,4 km/h (2 Bft)
28.05.2024 04:27 14,8 ?C 15,2 ?C 14,6 ?C 91 % 1013,4 hPa 0,0 l/m? 3,6 km/h (1 Bft) O-SO 121 ? 0 min 0 W/m? 13,3 ?C 6,4 km/h (2 Bft)
28.05.2024 04:30 14,8 ?C 15,3 ?C 14,5 ?C 91 % 1013,5 hPa 0,0 l/m? 2,4 km/h (1 Bft) SO 133 ? 0 min 0 W/m? 13,3 ?C 4,8 km/h (1 Bft)
28.05.2024 04:33 14,8 ?C 15,4 ?C 14,5 ?C 91 % 1013,6 hPa 0,0 l/m? 3,4 km/h (1 Bft) S-SO 157 ? 0 min 0 W/m? 13,3 ?C 4,8 km/h (1 Bft)
28.05.2024 04:36 14,8 ?C 15,2 ?C 14,6 ?C 92 % 1013,5 hPa 0,0 l/m? 3,5 km/h (1 Bft) SO 129 ? 0 min 0 W/m? 13,5 ?C 4,8 km/h (1 Bft)
28.05.2024 04:39 14,8 ?C 15,1 ?C 14,6 ?C 92 % 1013,4 hPa 0,0 l/m? 4,1 km/h (1 Bft) O-SO 123 ? 0 min 1 W/m? 13,5 ?C 6,4 km/h (2 Bft)
28.05.2024 04:42 14,8 ?C 15,2 ?C 14,6 ?C 92 % 1013,4 hPa 0,0 l/m? 3,5 km/h (1 Bft) O-SO 111 ? 0 min 2 W/m? 13,5 ?C 4,8 km/h (1 Bft)
28.05.2024 04:45 14,8 ?C 15,4 ?C 14,5 ?C 92 % 1013,4 hPa 0,0 l/m? 1,2 km/h (1 Bft) O-SO 109 ? 0 min 2 W/m? 13,5 ?C 3,2 km/h (1 Bft)
28.05.2024 04:48 14,8 ?C 15,3 ?C 14,5 ?C 92 % 1013,4 hPa 0,0 l/m? 1,7 km/h (1 Bft) O-SO 109 ? 0 min 2 W/m? 13,5 ?C 3,2 km/h (1 Bft)
28.05.2024 04:51 14,8 ?C 15,2 ?C 14,5 ?C 92 % 1013,5 hPa 0,0 l/m? 1,7 km/h (1 Bft) O-SO 109 ? 0 min 2 W/m? 13,5 ?C 3,2 km/h (1 Bft)
28.05.2024 04:54 14,7 ?C 15,2 ?C 14,5 ?C 92 % 1013,5 hPa 0,0 l/m? 1,4 km/h (1 Bft) O-SO 109 ? 0 min 2 W/m? 13,4 ?C 3,2 km/h (1 Bft)
28.05.2024 04:57 14,8 ?C 15,1 ?C 14,5 ?C 92 % 1013,5 hPa 0,0 l/m? 1,0 km/h (0 Bft) O-SO 111 ? 0 min 4 W/m? 13,5 ?C 3,2 km/h (1 Bft)
28.05.2024 05:00 14,7 ?C 15,1 ?C 14,5 ?C 92 % 1013,5 hPa 0,0 l/m? 2,3 km/h (1 Bft) O-SO 120 ? 0 min 4 W/m? 13,4 ?C 3,2 km/h (1 Bft)
28.05.2024 05:03 14,7 ?C 15,2 ?C 14,5 ?C 92 % 1013,6 hPa 0,0 l/m? 2,2 km/h (1 Bft) O-SO 120 ? 0 min 4 W/m? 13,4 ?C 3,2 km/h (1 Bft)
28.05.2024 05:06 14,7 ?C 15,1 ?C 14,5 ?C 92 % 1013,7 hPa 0,0 l/m? 1,4 km/h (1 Bft) O-SO 120 ? 0 min 4 W/m? 13,4 ?C 3,2 km/h (1 Bft)
28.05.2024 05:09 14,8 ?C 15,2 ?C 14,5 ?C 92 % 1013,6 hPa 0,0 l/m? 2,6 km/h (1 Bft) SO 127 ? 0 min 4 W/m? 13,5 ?C 4,8 km/h (1 Bft)
28.05.2024 05:12 14,7 ?C 15,2 ?C 14,5 ?C 92 % 1013,5 hPa 0,0 l/m? 4,1 km/h (1 Bft) SO 129 ? 0 min 4 W/m? 13,4 ?C 6,4 km/h (2 Bft)
28.05.2024 05:15 14,8 ?C 15,2 ?C 14,5 ?C 92 % 1013,5 hPa 0,0 l/m? 3,2 km/h (1 Bft) SO 126 ? 0 min 5 W/m? 13,5 ?C 6,4 km/h (2 Bft)
28.05.2024 05:18 14,8 ?C 15,3 ?C 14,5 ?C 92 % 1013,5 hPa 0,0 l/m? 2,7 km/h (1 Bft) O-SO 122 ? 0 min 5 W/m? 13,5 ?C 4,8 km/h (1 Bft)
28.05.2024 05:21 14,8 ?C 15,4 ?C 14,5 ?C 92 % 1013,5 hPa 0,0 l/m? 1,8 km/h (1 Bft) O-SO 121 ? 0 min 7 W/m? 13,5 ?C 3,2 km/h (1 Bft)
28.05.2024 05:24 14,8 ?C 15,3 ?C 14,5 ?C 92 % 1013,5 hPa 0,0 l/m? 1,3 km/h (1 Bft) O-SO 121 ? 0 min 7 W/m? 13,5 ?C 3,2 km/h (1 Bft)
28.05.2024 05:27 14,7 ?C 15,4 ?C 14,6 ?C 92 % 1013,4 hPa 0,0 l/m? 1,5 km/h (1 Bft) O-SO 121 ? 0 min 8 W/m? 13,4 ?C 3,2 km/h (1 Bft)
28.05.2024 05:30 14,7 ?C 15,5 ?C 14,6 ?C 92 % 1013,5 hPa 0,0 l/m? 1,7 km/h (1 Bft) O-SO 121 ? 0 min 9 W/m? 13,4 ?C 3,2 km/h (1 Bft)
28.05.2024 05:33 14,7 ?C 15,4 ?C 14,6 ?C 92 % 1013,4 hPa 0,0 l/m? 1,9 km/h (1 Bft) O-SO 121 ? 0 min 10 W/m? 13,4 ?C 3,2 km/h (1 Bft)
28.05.2024 05:36 14,8 ?C 15,6 ?C 14,7 ?C 92 % 1013,4 hPa 0,0 l/m? 2,1 km/h (1 Bft) O-SO 121 ? 0 min 11 W/m? 13,5 ?C 4,8 km/h (1 Bft)
28.05.2024 05:39 14,8 ?C 15,5 ?C 14,7 ?C 92 % 1013,4 hPa 0,0 l/m? 2,4 km/h (1 Bft) O-SO 121 ? 0 min 11 W/m? 13,5 ?C 3,2 km/h (1 Bft)
28.05.2024 05:42 14,8 ?C 15,4 ?C 14,7 ?C 92 % 1013,4 hPa 0,0 l/m? 2,3 km/h (1 Bft) O-SO 117 ? 0 min 11 W/m? 13,5 ?C 4,8 km/h (1 Bft)
28.05.2024 05:45 14,8 ?C 15,6 ?C 14,7 ?C 92 % 1013,4 hPa 0,0 l/m? 2,5 km/h (1 Bft) O-SO 113 ? 0 min 12 W/m? 13,5 ?C 4,8 km/h (1 Bft)
28.05.2024 05:48 14,8 ?C 15,7 ?C 14,7 ?C 92 % 1013,4 hPa 0,0 l/m? 2,5 km/h (1 Bft) O-SO 114 ? 0 min 14 W/m? 13,5 ?C 4,8 km/h (1 Bft)
28.05.2024 05:51 14,8 ?C 15,7 ?C 14,7 ?C 92 % 1013,5 hPa 0,0 l/m? 3,0 km/h (1 Bft) O-SO 118 ? 0 min 15 W/m? 13,5 ?C 4,8 km/h (1 Bft)
28.05.2024 05:54 14,8 ?C 15,7 ?C 14,8 ?C 92 % 1013,5 hPa 0,0 l/m? 1,8 km/h (1 Bft) O-SO 118 ? 0 min 17 W/m? 13,5 ?C 3,2 km/h (1 Bft)
28.05.2024 05:57 14,8 ?C 15,8 ?C 14,9 ?C 92 % 1013,5 hPa 0,0 l/m? 0,6 km/h (0 Bft) O-SO 118 ? 0 min 20 W/m? 13,5 ?C 1,6 km/h (1 Bft)
28.05.2024 06:00 14,8 ?C 15,9 ?C 15,0 ?C 92 % 1013,5 hPa 0,0 l/m? 0,2 km/h (0 Bft) O-SO 118 ? 0 min 21 W/m? 13,5 ?C 1,6 km/h (1 Bft)
28.05.2024 06:03 14,8 ?C 16,0 ?C 15,1 ?C 92 % 1013,5 hPa 0,0 l/m? 0,5 km/h (0 Bft) O-SO 118 ? 0 min 24 W/m? 13,5 ?C 1,6 km/h (1 Bft)
28.05.2024 06:06 14,8 ?C 15,9 ?C 15,2 ?C 92 % 1013,6 hPa 0,0 l/m? 0,0 km/h (0 Bft) O-SO 118 ? 0 min 26 W/m? 13,5 ?C 1,6 km/h (1 Bft)
28.05.2024 06:09 14,9 ?C 16,0 ?C 15,4 ?C 92 % 1013,6 hPa 0,0 l/m? 0,5 km/h (0 Bft) O-SO 118 ? 0 min 26 W/m? 13,6 ?C 3,2 km/h (1 Bft)
28.05.2024 06:12 14,9 ?C 16,1 ?C 15,4 ?C 92 % 1013,6 hPa 0,0 l/m? 1,0 km/h (0 Bft) O-SO 118 ? 0 min 28 W/m? 13,6 ?C 1,6 km/h (1 Bft)
28.05.2024 06:15 15,0 ?C 16,3 ?C 15,5 ?C 92 % 1013,7 hPa 0,0 l/m? 2,5 km/h (1 Bft) S-SO 167 ? 0 min 30 W/m? 13,7 ?C 4,8 km/h (1 Bft)
28.05.2024 06:18 15,0 ?C 16,3 ?C 15,5 ?C 92 % 1013,7 hPa 0,0 l/m? 1,5 km/h (1 Bft) S-SW 213 ? 0 min 33 W/m? 13,7 ?C 4,8 km/h (1 Bft)
28.05.2024 06:21 15,0 ?C 16,4 ?C 15,7 ?C 92 % 1013,8 hPa 0,0 l/m? 2,1 km/h (1 Bft) SW 220 ? 0 min 36 W/m? 13,7 ?C 3,2 km/h (1 Bft)
28.05.2024 06:24 15,1 ?C 16,4 ?C 15,8 ?C 92 % 1013,8 hPa 0,0 l/m? 0,9 km/h (0 Bft) SW 220 ? 0 min 38 W/m? 13,8 ?C 3,2 km/h (1 Bft)
28.05.2024 06:27 15,2 ?C 16,5 ?C 16,0 ?C 92 % 1013,8 hPa 0,0 l/m? 2,3 km/h (1 Bft) SW 231 ? 0 min 40 W/m? 13,9 ?C 6,4 km/h (2 Bft)
28.05.2024 06:30 15,3 ?C 16,6 ?C 16,0 ?C 92 % 1013,7 hPa 0,0 l/m? 2,5 km/h (1 Bft) SW 226 ? 0 min 42 W/m? 14,0 ?C 4,8 km/h (1 Bft)
28.05.2024 06:33 15,3 ?C 16,7 ?C 16,1 ?C 92 % 1013,8 hPa 0,0 l/m? 3,2 km/h (1 Bft) SW 234 ? 0 min 42 W/m? 14,0 ?C 6,4 km/h (2 Bft)
28.05.2024 06:36 15,4 ?C 16,7 ?C 16,2 ?C 92 % 1013,7 hPa 0,0 l/m? 2,7 km/h (1 Bft) W-SW 243 ? 0 min 44 W/m? 14,1 ?C 8,0 km/h (2 Bft)
28.05.2024 06:39 15,4 ?C 16,7 ?C 16,3 ?C 92 % 1013,7 hPa 0,0 l/m? 2,6 km/h (1 Bft) W-SW 242 ? 0 min 45 W/m? 14,1 ?C 6,4 km/h (2 Bft)
28.05.2024 06:42 15,5 ?C 16,7 ?C 16,5 ?C 92 % 1013,8 hPa 0,0 l/m? 2,9 km/h (1 Bft) SW 234 ? 0 min 47 W/m? 14,2 ?C 8,0 km/h (2 Bft)
28.05.2024 06:45 15,5 ?C 16,8 ?C 16,7 ?C 92 % 1013,8 hPa 0,0 l/m? 2,6 km/h (1 Bft) SW 229 ? 0 min 47 W/m? 14,2 ?C 4,8 km/h (1 Bft)
28.05.2024 06:48 15,5 ?C 16,7 ?C 16,9 ?C 92 % 1013,8 hPa 0,0 l/m? 2,2 km/h (1 Bft) SW 222 ? 0 min 47 W/m? 14,2 ?C 4,8 km/h (1 Bft)
28.05.2024 06:51 15,6 ?C 16,8 ?C 16,5 ?C 92 % 1013,8 hPa 0,0 l/m? 3,3 km/h (1 Bft) S-SW 212 ? 0 min 46 W/m? 14,3 ?C 4,8 km/h (1 Bft)
28.05.2024 06:54 15,6 ?C 16,9 ?C 16,5 ?C 92 % 1013,9 hPa 0,0 l/m? 3,7 km/h (1 Bft) SW 218 ? 0 min 46 W/m? 14,3 ?C 6,4 km/h (2 Bft)
28.05.2024 06:57 15,7 ?C 16,9 ?C 16,4 ?C 92 % 1013,9 hPa 0,0 l/m? 4,2 km/h (1 Bft) SW 219 ? 0 min 47 W/m? 14,4 ?C 6,4 km/h (2 Bft)
28.05.2024 07:00 15,7 ?C 17,0 ?C 16,4 ?C 92 % 1013,9 hPa 0,0 l/m? 3,7 km/h (1 Bft) SW 215 ? 0 min 47 W/m? 14,4 ?C 6,4 km/h (2 Bft)
28.05.2024 07:03 15,7 ?C 17,0 ?C 16,4 ?C 92 % 1014,0 hPa 0,0 l/m? 3,2 km/h (1 Bft) S-SW 211 ? 0 min 47 W/m? 14,4 ?C 6,4 km/h (2 Bft)
28.05.2024 07:06 15,7 ?C 17,0 ?C 16,3 ?C 92 % 1014,0 hPa 0,0 l/m? 5,8 km/h (2 Bft) SW 220 ? 0 min 47 W/m? 14,4 ?C 9,7 km/h (2 Bft)
28.05.2024 07:09 15,7 ?C 16,9 ?C 16,3 ?C 92 % 1014,0 hPa 0,0 l/m? 2,6 km/h (1 Bft) S-SW 199 ? 0 min 45 W/m? 14,4 ?C 4,8 km/h (1 Bft)
28.05.2024 07:12 15,7 ?C 16,8 ?C 16,3 ?C 92 % 1014,0 hPa 0,0 l/m? 3,6 km/h (1 Bft) S-SW 210 ? 0 min 44 W/m? 14,4 ?C 6,4 km/h (2 Bft)
28.05.2024 07:15 15,7 ?C 16,7 ?C 16,3 ?C 92 % 1013,9 hPa 0,0 l/m? 3,4 km/h (1 Bft) S-SW 211 ? 0 min 44 W/m? 14,4 ?C 6,4 km/h (2 Bft)
28.05.2024 07:18 15,7 ?C 16,8 ?C 16,4 ?C 92 % 1013,9 hPa 0,0 l/m? 2,6 km/h (1 Bft) SW 220 ? 0 min 44 W/m? 14,4 ?C 4,8 km/h (1 Bft)
28.05.2024 07:21 15,8 ?C 16,9 ?C 16,5 ?C 92 % 1013,9 hPa 0,0 l/m? 3,2 km/h (1 Bft) W-SW 241 ? 0 min 45 W/m? 14,5 ?C 6,4 km/h (2 Bft)
28.05.2024 07:24 15,8 ?C 16,8 ?C 16,5 ?C 92 % 1013,9 hPa 0,0 l/m? 4,1 km/h (1 Bft) W-SW 239 ? 0 min 46 W/m? 14,5 ?C 8,0 km/h (2 Bft)
28.05.2024 07:27 15,7 ?C 16,9 ?C 16,5 ?C 92 % 1013,9 hPa 0,0 l/m? 2,9 km/h (1 Bft) SW 232 ? 0 min 45 W/m? 14,4 ?C 6,4 km/h (2 Bft)
28.05.2024 07:30 15,8 ?C 16,9 ?C 16,5 ?C 92 % 1014,0 hPa 0,0 l/m? 2,2 km/h (1 Bft) SW 221 ? 0 min 43 W/m? 14,5 ?C 4,8 km/h (1 Bft)
28.05.2024 07:33 15,8 ?C 17,1 ?C 16,5 ?C 92 % 1014,0 hPa 0,0 l/m? 1,4 km/h (1 Bft) S-SW 212 ? 0 min 43 W/m? 14,5 ?C 4,8 km/h (1 Bft)
28.05.2024 07:36 15,8 ?C 17,3 ?C 16,4 ?C 92 % 1014,1 hPa 0,0 l/m? 2,6 km/h (1 Bft) S-SW 192 ? 0 min 43 W/m? 14,5 ?C 4,8 km/h (1 Bft)
28.05.2024 07:39 15,8 ?C 17,2 ?C 16,5 ?C 92 % 1014,1 hPa 0,0 l/m? 2,1 km/h (1 Bft) S 185 ? 0 min 47 W/m? 14,5 ?C 3,2 km/h (1 Bft)
28.05.2024 07:42 15,9 ?C 17,3 ?C 16,7 ?C 92 % 1014,1 hPa 0,0 l/m? 2,6 km/h (1 Bft) S-SW 199 ? 0 min 52 W/m? 14,6 ?C 4,8 km/h (1 Bft)
28.05.2024 07:45 16,0 ?C 17,4 ?C 16,8 ?C 92 % 1014,0 hPa 0,0 l/m? 2,3 km/h (1 Bft) S-SW 212 ? 0 min 53 W/m? 14,7 ?C 4,8 km/h (1 Bft)
28.05.2024 07:48 16,0 ?C 17,5 ?C 16,9 ?C 92 % 1014,0 hPa 0,0 l/m? 3,5 km/h (1 Bft) SW 215 ? 0 min 57 W/m? 14,7 ?C 6,4 km/h (2 Bft)
28.05.2024 07:51 16,0 ?C 17,4 ?C 17,0 ?C 92 % 1014,0 hPa 0,0 l/m? 3,0 km/h (1 Bft) S-SW 207 ? 0 min 54 W/m? 14,7 ?C 6,4 km/h (2 Bft)
28.05.2024 07:54 16,1 ?C 17,5 ?C 17,0 ?C 92 % 1014,0 hPa 0,0 l/m? 4,0 km/h (1 Bft) SW 234 ? 0 min 51 W/m? 14,8 ?C 8,0 km/h (2 Bft)
28.05.2024 07:57 16,0 ?C 17,6 ?C 17,0 ?C 92 % 1014,0 hPa 0,0 l/m? 4,6 km/h (1 Bft) SW 228 ? 0 min 56 W/m? 14,7 ?C 8,0 km/h (2 Bft)
28.05.2024 08:00 16,1 ?C 17,6 ?C 17,2 ?C 92 % 1014,0 hPa 0,0 l/m? 3,7 km/h (1 Bft) SW 222 ? 0 min 64 W/m? 14,8 ?C 6,4 km/h (2 Bft)
28.05.2024 08:03 16,1 ?C 17,7 ?C 17,4 ?C 92 % 1014,1 hPa 0,0 l/m? 4,1 km/h (1 Bft) SW 219 ? 0 min 68 W/m? 14,8 ?C 6,4 km/h (2 Bft)
28.05.2024 08:06 16,1 ?C 17,8 ?C 17,5 ?C 92 % 1014,2 hPa 0,0 l/m? 3,8 km/h (1 Bft) SW 218 ? 0 min 66 W/m? 14,8 ?C 8,0 km/h (2 Bft)
28.05.2024 08:09 16,2 ?C 17,8 ?C 17,5 ?C 92 % 1014,3 hPa 0,0 l/m? 3,4 km/h (1 Bft) SW 236 ? 0 min 63 W/m? 14,9 ?C 6,4 km/h (2 Bft)
28.05.2024 08:12 16,3 ?C 17,9 ?C 17,3 ?C 92 % 1014,3 hPa 0,0 l/m? 4,9 km/h (1 Bft) SW 217 ? 0 min 56 W/m? 15,0 ?C 8,0 km/h (2 Bft)
28.05.2024 08:15 16,3 ?C 17,8 ?C 17,1 ?C 91 % 1014,2 hPa 0,0 l/m? 4,4 km/h (1 Bft) S-SW 198 ? 0 min 55 W/m? 14,8 ?C 6,4 km/h (2 Bft)
28.05.2024 08:18 16,3 ?C 17,9 ?C 17,1 ?C 91 % 1014,3 hPa 0,0 l/m? 4,9 km/h (1 Bft) SW 215 ? 0 min 59 W/m? 14,8 ?C 8,0 km/h (2 Bft)
28.05.2024 08:21 16,3 ?C 17,9 ?C 17,3 ?C 91 % 1014,3 hPa 0,0 l/m? 5,4 km/h (2 Bft) SW 219 ? 0 min 60 W/m? 14,8 ?C 8,0 km/h (2 Bft)
28.05.2024 08:24 16,3 ?C 17,9 ?C 17,2 ?C 91 % 1014,3 hPa 0,0 l/m? 4,5 km/h (1 Bft) SW 219 ? 0 min 56 W/m? 14,8 ?C 8,0 km/h (2 Bft)
28.05.2024 08:27 16,3 ?C 17,8 ?C 17,1 ?C 91 % 1014,5 hPa 0,0 l/m? 4,4 km/h (1 Bft) W-SW 246 ? 0 min 49 W/m? 14,8 ?C 8,0 km/h (2 Bft)
28.05.2024 08:30 16,4 ?C 18,0 ?C 17,1 ?C 91 % 1014,5 hPa 0,0 l/m? 3,1 km/h (1 Bft) SW 230 ? 0 min 40 W/m? 14,9 ?C 4,8 km/h (1 Bft)
28.05.2024 08:33 16,4 ?C 17,8 ?C 16,9 ?C 92 % 1014,6 hPa 0,0 l/m? 4,3 km/h (1 Bft) S-SW 213 ? 0 min 27 W/m? 15,1 ?C 6,4 km/h (2 Bft)
28.05.2024 08:36 16,4 ?C 17,6 ?C 16,7 ?C 91 % 1014,7 hPa 0,0 l/m? 5,7 km/h (2 Bft) SW 229 ? 0 min 19 W/m? 14,9 ?C 9,7 km/h (2 Bft)
28.05.2024 08:39 16,4 ?C 17,4 ?C 16,6 ?C 91 % 1014,7 hPa 0,0 l/m? 4,3 km/h (1 Bft) SW 226 ? 0 min 22 W/m? 14,9 ?C 9,7 km/h (2 Bft)
28.05.2024 08:42 16,4 ?C 17,5 ?C 16,6 ?C 91 % 1014,8 hPa 0,0 l/m? 5,3 km/h (1 Bft) S-SW 210 ? 0 min 22 W/m? 14,9 ?C 9,7 km/h (2 Bft)
28.05.2024 08:45 16,4 ?C 17,4 ?C 16,6 ?C 91 % 1014,8 hPa 0,0 l/m? 5,5 km/h (2 Bft) S-SW 209 ? 0 min 23 W/m? 14,9 ?C 9,7 km/h (2 Bft)
28.05.2024 08:48 16,4 ?C 17,3 ?C 16,6 ?C 91 % 1015,1 hPa 0,0 l/m? 5,6 km/h (2 Bft) S-SW 201 ? 0 min 24 W/m? 14,9 ?C 12,9 km/h (3 Bft)
28.05.2024 08:51 16,4 ?C 17,3 ?C 16,7 ?C 91 % 1015,2 hPa 0,0 l/m? 5,6 km/h (2 Bft) S-SW 202 ? 0 min 29 W/m? 14,9 ?C 11,3 km/h (2 Bft)
28.05.2024 08:54 16,4 ?C 17,2 ?C 16,8 ?C 92 % 1015,2 hPa 0,2 l/m? 4,1 km/h (1 Bft) S-SW 195 ? 0 min 40 W/m? 15,1 ?C 9,7 km/h (2 Bft)
28.05.2024 08:57 16,4 ?C 17,3 ?C 17,0 ?C 91 % 1015,2 hPa 0,0 l/m? 7,4 km/h (2 Bft) SW 215 ? 0 min 77 W/m? 14,9 ?C 16,1 km/h (3 Bft)
28.05.2024 09:00 16,5 ?C 17,5 ?C 17,2 ?C 92 % 1015,3 hPa 0,0 l/m? 8,6 km/h (2 Bft) SW 224 ? 0 min 89 W/m? 15,2 ?C 14,5 km/h (3 Bft)
28.05.2024 09:03 16,5 ?C 17,6 ?C 17,0 ?C 91 % 1015,2 hPa 0,2 l/m? 8,8 km/h (2 Bft) SW 218 ? 0 min 104 W/m? 15,0 ?C 17,7 km/h (3 Bft)
28.05.2024 09:06 16,5 ?C 17,9 ?C 17,2 ?C 91 % 1015,2 hPa 0,2 l/m? 9,3 km/h (2 Bft) W-SW 240 ? 0 min 117 W/m? 15,0 ?C 19,3 km/h (3 Bft)
28.05.2024 09:09 16,4 ?C 17,8 ?C 17,2 ?C 91 % 1015,3 hPa 0,0 l/m? 8,5 km/h (2 Bft) W-SW 247 ? 0 min 69 W/m? 14,9 ?C 14,5 km/h (3 Bft)
28.05.2024 09:12 16,3 ?C 17,5 ?C 16,6 ?C 91 % 1015,3 hPa 0,0 l/m? 11,3 km/h (2 Bft) W-SW 240 ? 0 min 47 W/m? 14,8 ?C 17,7 km/h (3 Bft)
28.05.2024 09:15 16,2 ?C 17,4 ?C 16,5 ?C 91 % 1015,3 hPa 0,0 l/m? 10,3 km/h (2 Bft) W-SW 249 ? 0 min 49 W/m? 14,7 ?C 17,7 km/h (3 Bft)
28.05.2024 09:18 16,2 ?C 17,3 ?C 16,4 ?C 91 % 1015,4 hPa 0,0 l/m? 8,2 km/h (2 Bft) W-SW 244 ? 0 min 36 W/m? 14,7 ?C 16,1 km/h (3 Bft)
28.05.2024 09:21 16,1 ?C 17,3 ?C 16,5 ?C 91 % 1015,3 hPa 0,0 l/m? 9,1 km/h (2 Bft) W-SW 248 ? 0 min 52 W/m? 14,6 ?C 16,1 km/h (3 Bft)
28.05.2024 09:24 16,0 ?C 17,3 ?C 16,6 ?C 91 % 1015,3 hPa 0,0 l/m? 9,2 km/h (2 Bft) W 264 ? 0 min 63 W/m? 14,5 ?C 17,7 km/h (3 Bft)
28.05.2024 09:27 16,0 ?C 17,2 ?C 16,7 ?C 91 % 1015,3 hPa 0,0 l/m? 12,1 km/h (2 Bft) W 271 ? 0 min 64 W/m? 14,5 ?C 24,1 km/h (4 Bft)
28.05.2024 09:30 15,9 ?C 17,1 ?C 16,8 ?C 91 % 1015,3 hPa 0,0 l/m? 9,4 km/h (2 Bft) W 259 ? 0 min 65 W/m? 14,4 ?C 20,9 km/h (4 Bft)
28.05.2024 09:33 15,9 ?C 17,2 ?C 17,0 ?C 91 % 1015,4 hPa 0,0 l/m? 9,8 km/h (2 Bft) W-SW 257 ? 0 min 67 W/m? 14,4 ?C 17,7 km/h (3 Bft)
28.05.2024 09:36 15,9 ?C 17,3 ?C 17,1 ?C 91 % 1015,4 hPa 0,0 l/m? 12,8 km/h (3 Bft) W 264 ? 0 min 87 W/m? 14,4 ?C 22,5 km/h (4 Bft)
28.05.2024 09:39 15,9 ?C 17,3 ?C 17,0 ?C 91 % 1015,4 hPa 0,0 l/m? 12,7 km/h (3 Bft) W 264 ? 0 min 84 W/m? 14,4 ?C 20,9 km/h (4 Bft)
28.05.2024 09:42 15,9 ?C 17,2 ?C 16,8 ?C 91 % 1015,5 hPa 0,0 l/m? 10,7 km/h (2 Bft) W 265 ? 0 min 73 W/m? 14,4 ?C 16,1 km/h (3 Bft)
28.05.2024 09:45 15,9 ?C 17,3 ?C 16,8 ?C 91 % 1015,4 hPa 0,0 l/m? 10,9 km/h (2 Bft) W 263 ? 0 min 79 W/m? 14,4 ?C 16,1 km/h (3 Bft)
28.05.2024 09:48 15,9 ?C 17,2 ?C 16,7 ?C 91 % 1015,5 hPa 0,0 l/m? 14,7 km/h (3 Bft) W-SW 258 ? 0 min 63 W/m? 14,4 ?C 25,7 km/h (4 Bft)
28.05.2024 09:51 15,8 ?C 17,1 ?C 16,5 ?C 91 % 1015,5 hPa 0,0 l/m? 10,7 km/h (2 Bft) W-SW 256 ? 0 min 58 W/m? 14,3 ?C 19,3 km/h (3 Bft)
28.05.2024 09:54 15,8 ?C 17,1 ?C 16,4 ?C 91 % 1015,6 hPa 0,0 l/m? 13,9 km/h (3 Bft) W 261 ? 0 min 68 W/m? 14,3 ?C 19,3 km/h (3 Bft)
28.05.2024 09:57 15,8 ?C 17,1 ?C 16,4 ?C 91 % 1015,6 hPa 0,0 l/m? 13,7 km/h (3 Bft) W 263 ? 0 min 61 W/m? 14,3 ?C 24,1 km/h (4 Bft)
28.05.2024 10:00 15,8 ?C 17,0 ?C 16,2 ?C 91 % 1015,7 hPa 0,0 l/m? 11,8 km/h (2 Bft) W-SW 256 ? 0 min 43 W/m? 14,3 ?C 19,3 km/h (3 Bft)
28.05.2024 10:03 15,7 ?C 16,9 ?C 16,1 ?C 91 % 1015,8 hPa 0,0 l/m? 8,8 km/h (2 Bft) W-SW 254 ? 0 min 40 W/m? 14,2 ?C 17,7 km/h (3 Bft)
28.05.2024 10:06 15,7 ?C 16,8 ?C 16,1 ?C 91 % 1015,7 hPa 0,0 l/m? 7,4 km/h (2 Bft) W 270 ? 0 min 28 W/m? 14,2 ?C 16,1 km/h (3 Bft)
28.05.2024 10:09 15,7 ?C 16,7 ?C 15,9 ?C 91 % 1015,8 hPa 0,0 l/m? 11,0 km/h (2 Bft) W-SW 258 ? 0 min 24 W/m? 14,2 ?C 25,7 km/h (4 Bft)
28.05.2024 10:12 15,7 ?C 16,6 ?C 15,9 ?C 91 % 1015,9 hPa 0,0 l/m? 7,6 km/h (2 Bft) W-SW 250 ? 0 min 21 W/m? 14,2 ?C 20,9 km/h (4 Bft)
28.05.2024 10:15 15,7 ?C 16,7 ?C 15,9 ?C 91 % 1016,0 hPa 0,2 l/m? 7,9 km/h (2 Bft) W-SW 244 ? 0 min 29 W/m? 14,2 ?C 14,5 km/h (3 Bft)
28.05.2024 10:18 15,6 ?C 16,8 ?C 16,1 ?C 91 % 1015,9 hPa 0,2 l/m? 7,3 km/h (2 Bft) W-SW 258 ? 0 min 54 W/m? 14,1 ?C 12,9 km/h (3 Bft)
28.05.2024 10:21 15,6 ?C 16,9 ?C 16,4 ?C 91 % 1015,8 hPa 0,0 l/m? 9,1 km/h (2 Bft) W 275 ? 0 min 77 W/m? 14,1 ?C 17,7 km/h (3 Bft)
28.05.2024 10:24 15,7 ?C 16,9 ?C 16,5 ?C 91 % 1015,8 hPa 0,4 l/m? 10,9 km/h (2 Bft) W 279 ? 0 min 101 W/m? 14,2 ?C 16,1 km/h (3 Bft)
28.05.2024 10:27 15,7 ?C 17,1 ?C 16,8 ?C 91 % 1015,8 hPa 0,2 l/m? 11,7 km/h (2 Bft) W 271 ? 0 min 130 W/m? 14,2 ?C 19,3 km/h (3 Bft)
28.05.2024 10:30 15,7 ?C 17,3 ?C 17,1 ?C 91 % 1015,9 hPa 0,2 l/m? 9,3 km/h (2 Bft) W 269 ? 0 min 138 W/m? 14,2 ?C 16,1 km/h (3 Bft)
28.05.2024 10:33 15,8 ?C 17,5 ?C 17,3 ?C 91 % 1015,9 hPa 0,0 l/m? 11,5 km/h (2 Bft) W 259 ? 0 min 129 W/m? 14,3 ?C 19,3 km/h (3 Bft)
28.05.2024 10:36 15,8 ?C 17,5 ?C 17,3 ?C 91 % 1016,0 hPa 0,0 l/m? 11,8 km/h (2 Bft) W 268 ? 0 min 134 W/m? 14,3 ?C 22,5 km/h (4 Bft)
28.05.2024 10:39 15,9 ?C 17,9 ?C 17,7 ?C 91 % 1016,1 hPa 0,0 l/m? 6,5 km/h (2 Bft) W 267 ? 0 min 144 W/m? 14,4 ?C 12,9 km/h (3 Bft)
28.05.2024 10:42 16,1 ?C 18,3 ?C 18,0 ?C 91 % 1016,1 hPa 0,0 l/m? 11,5 km/h (2 Bft) W 265 ? 0 min 206 W/m? 14,6 ?C 19,3 km/h (3 Bft)
28.05.2024 10:45 16,1 ?C 19,1 ?C 19,4 ?C 91 % 1016,1 hPa 0,0 l/m? 11,7 km/h (2 Bft) W 270 ? 0 min 291 W/m? 14,6 ?C 22,5 km/h (4 Bft)
28.05.2024 10:48 16,5 ?C 20,9 ?C 22,5 ?C 92 % 1016,1 hPa 0,0 l/m? 13,0 km/h (3 Bft) W 273 ? 3 min 550 W/m? 15,2 ?C 20,9 km/h (4 Bft)
28.05.2024 10:51 16,8 ?C 21,1 ?C 21,8 ?C 91 % 1016,0 hPa 0,0 l/m? 10,8 km/h (2 Bft) W 273 ? 0 min 424 W/m? 15,3 ?C 19,3 km/h (3 Bft)
28.05.2024 10:54 16,9 ?C 21,1 ?C 21,3 ?C 90 % 1016,1 hPa 0,0 l/m? 16,0 km/h (3 Bft) W 274 ? 3 min 478 W/m? 15,2 ?C 20,9 km/h (4 Bft)
28.05.2024 10:57 16,8 ?C 20,7 ?C 20,0 ?C 89 % 1016,2 hPa 0,0 l/m? 12,0 km/h (2 Bft) W 273 ? 0 min 225 W/m? 15,0 ?C 22,5 km/h (4 Bft)
28.05.2024 11:00 16,7 ?C 19,8 ?C 18,7 ?C 89 % 1016,2 hPa 0,0 l/m? 11,1 km/h (2 Bft) W 270 ? 0 min 173 W/m? 14,9 ?C 20,9 km/h (4 Bft)
28.05.2024 11:03 16,5 ?C 19,3 ?C 18,1 ?C 89 % 1016,3 hPa 0,0 l/m? 13,5 km/h (3 Bft) W 271 ? 0 min 148 W/m? 14,7 ?C 19,3 km/h (3 Bft)
28.05.2024 11:06 16,4 ?C 18,9 ?C 17,9 ?C 88 % 1016,3 hPa 0,0 l/m? 10,1 km/h (2 Bft) W 270 ? 0 min 151 W/m? 14,4 ?C 20,9 km/h (4 Bft)
28.05.2024 11:09 16,4 ?C 19,1 ?C 18,7 ?C 89 % 1016,3 hPa 0,0 l/m? 10,1 km/h (2 Bft) W-NW 290 ? 0 min 183 W/m? 14,6 ?C 19,3 km/h (3 Bft)
28.05.2024 11:12 16,4 ?C 19,0 ?C 18,8 ?C 88 % 1016,4 hPa 0,0 l/m? 13,9 km/h (3 Bft) W 275 ? 0 min 217 W/m? 14,4 ?C 22,5 km/h (4 Bft)
28.05.2024 11:15 16,4 ?C 19,3 ?C 19,7 ?C 87 % 1016,4 hPa 0,0 l/m? 15,1 km/h (3 Bft) W-NW 299 ? 0 min 317 W/m? 14,2 ?C 22,5 km/h (4 Bft)
28.05.2024 11:18 16,6 ?C 20,1 ?C 20,7 ?C 86 % 1016,4 hPa 0,0 l/m? 11,9 km/h (2 Bft) W 268 ? 0 min 386 W/m? 14,2 ?C 19,3 km/h (3 Bft)
28.05.2024 11:21 16,7 ?C 20,1 ?C 20,2 ?C 85 % 1016,4 hPa 0,0 l/m? 14,4 km/h (3 Bft) W 265 ? 0 min 339 W/m? 14,2 ?C 22,5 km/h (4 Bft)
28.05.2024 11:24 16,8 ?C 21,1 ?C 21,2 ?C 84 % 1016,5 hPa 0,0 l/m? 12,8 km/h (3 Bft) W-NW 301 ? 0 min 348 W/m? 14,1 ?C 20,9 km/h (4 Bft)
28.05.2024 11:27 16,9 ?C 19,8 ?C 19,1 ?C 84 % 1016,6 hPa 0,0 l/m? 15,6 km/h (3 Bft) W-NW 294 ? 0 min 200 W/m? 14,2 ?C 22,5 km/h (4 Bft)
28.05.2024 11:30 16,8 ?C 19,0 ?C 18,6 ?C 84 % 1016,6 hPa 0,0 l/m? 10,2 km/h (2 Bft) W-NW 289 ? 0 min 163 W/m? 14,1 ?C 19,3 km/h (3 Bft)
28.05.2024 11:33 16,6 ?C 18,6 ?C 18,4 ?C 82 % 1016,7 hPa 0,0 l/m? 12,6 km/h (3 Bft) W 275 ? 0 min 145 W/m? 13,5 ?C 22,5 km/h (4 Bft)
28.05.2024 11:36 16,4 ?C 18,3 ?C 18,1 ?C 82 % 1016,8 hPa 0,0 l/m? 12,6 km/h (3 Bft) W 281 ? 0 min 159 W/m? 13,3 ?C 17,7 km/h (3 Bft)
28.05.2024 11:39 16,3 ?C 18,0 ?C 17,9 ?C 82 % 1016,9 hPa 0,0 l/m? 15,7 km/h (3 Bft) W 266 ? 0 min 163 W/m? 13,2 ?C 24,1 km/h (4 Bft)
28.05.2024 11:42 16,2 ?C 18,0 ?C 17,9 ?C 82 % 1017,0 hPa 0,0 l/m? 11,0 km/h (2 Bft) W 272 ? 0 min 168 W/m? 13,1 ?C 22,5 km/h (4 Bft)
28.05.2024 11:45 16,2 ?C 17,9 ?C 18,5 ?C 83 % 1016,9 hPa 0,0 l/m? 12,1 km/h (2 Bft) W 280 ? 0 min 192 W/m? 13,3 ?C 24,1 km/h (4 Bft)
28.05.2024 11:48 16,2 ?C 18,2 ?C 18,6 ?C 83 % 1016,8 hPa 0,0 l/m? 14,5 km/h (3 Bft) W 277 ? 0 min 236 W/m? 13,3 ?C 20,9 km/h (4 Bft)
28.05.2024 11:51 16,3 ?C 18,4 ?C 19,2 ?C 83 % 1016,8 hPa 0,0 l/m? 12,6 km/h (3 Bft) W 281 ? 0 min 228 W/m? 13,4 ?C 20,9 km/h (4 Bft)
28.05.2024 11:54 16,5 ?C 19,5 ?C 20,7 ?C 83 % 1016,8 hPa 0,0 l/m? 13,3 km/h (3 Bft) W 273 ? 3 min 477 W/m? 13,6 ?C 22,5 km/h (4 Bft)
28.05.2024 11:57 16,9 ?C 21,0 ?C 20,7 ?C 83 % 1016,8 hPa 0,0 l/m? 16,0 km/h (3 Bft) W-NW 292 ? 0 min 380 W/m? 14,0 ?C 25,7 km/h (4 Bft)
28.05.2024 12:00 17,0 ?C 19,7 ?C 19,3 ?C 82 % 1016,8 hPa 0,0 l/m? 13,0 km/h (3 Bft) W-NW 294 ? 0 min 222 W/m? 13,9 ?C 19,3 km/h (3 Bft)
28.05.2024 12:03 16,9 ?C 19,3 ?C 19,0 ?C 82 % 1016,9 hPa 0,0 l/m? 9,3 km/h (2 Bft) W 281 ? 0 min 183 W/m? 13,8 ?C 17,7 km/h (3 Bft)
28.05.2024 12:06 16,7 ?C 18,9 ?C 18,4 ?C 82 % 1016,9 hPa 0,0 l/m? 14,4 km/h (3 Bft) W-NW 283 ? 0 min 190 W/m? 13,6 ?C 24,1 km/h (4 Bft)
28.05.2024 12:09 16,5 ?C 18,8 ?C 18,5 ?C 82 % 1016,8 hPa 0,0 l/m? 9,1 km/h (2 Bft) W 277 ? 0 min 265 W/m? 13,4 ?C 16,1 km/h (3 Bft)
28.05.2024 12:12 16,5 ?C 19,3 ?C 19,1 ?C 83 % 1016,9 hPa 0,0 l/m? 13,4 km/h (3 Bft) W-NW 293 ? 0 min 270 W/m? 13,6 ?C 20,9 km/h (4 Bft)
28.05.2024 12:15 16,6 ?C 19,1 ?C 18,3 ?C 81 % 1016,9 hPa 0,0 l/m? 15,2 km/h (3 Bft) W-NW 296 ? 0 min 221 W/m? 13,3 ?C 22,5 km/h (4 Bft)
28.05.2024 12:18 16,6 ?C 18,6 ?C 18,2 ?C 82 % 1016,9 hPa 0,0 l/m? 13,2 km/h (3 Bft) W-NW 293 ? 0 min 185 W/m? 13,5 ?C 20,9 km/h (4 Bft)
28.05.2024 12:21 16,4 ?C 18,3 ?C 18,2 ?C 81 % 1016,9 hPa 0,0 l/m? 9,9 km/h (2 Bft) W 273 ? 0 min 148 W/m? 13,1 ?C 20,9 km/h (4 Bft)
28.05.2024 12:24 16,3 ?C 17,9 ?C 18,1 ?C 81 % 1017,1 hPa 0,0 l/m? 7,1 km/h (2 Bft) W-SW 254 ? 0 min 103 W/m? 13,0 ?C 17,7 km/h (3 Bft)
28.05.2024 12:27 16,1 ?C 17,5 ?C 17,2 ?C 81 % 1017,2 hPa 0,0 l/m? 10,5 km/h (2 Bft) W 275 ? 0 min 87 W/m? 12,8 ?C 22,5 km/h (4 Bft)
28.05.2024 12:30 16,0 ?C 17,2 ?C 17,3 ?C 81 % 1017,3 hPa 0,0 l/m? 7,0 km/h (2 Bft) W-SW 247 ? 0 min 67 W/m? 12,7 ?C 14,5 km/h (3 Bft)
28.05.2024 12:33 15,9 ?C 17,1 ?C 16,8 ?C 81 % 1017,4 hPa 0,0 l/m? 11,3 km/h (2 Bft) W 269 ? 0 min 81 W/m? 12,6 ?C 19,3 km/h (3 Bft)
28.05.2024 12:36 15,8 ?C 16,9 ?C 16,8 ?C 81 % 1017,5 hPa 0,0 l/m? 12,4 km/h (2 Bft) W 270 ? 0 min 97 W/m? 12,5 ?C 19,3 km/h (3 Bft)
28.05.2024 12:39 15,8 ?C 17,1 ?C 17,2 ?C 81 % 1017,5 hPa 0,0 l/m? 9,2 km/h (2 Bft) W 269 ? 0 min 142 W/m? 12,5 ?C 14,5 km/h (3 Bft)
28.05.2024 12:42 15,8 ?C 17,5 ?C 17,9 ?C 82 % 1017,3 hPa 0,0 l/m? 9,8 km/h (2 Bft) W 274 ? 0 min 186 W/m? 12,7 ?C 17,7 km/h (3 Bft)
28.05.2024 12:45 15,9 ?C 17,8 ?C 18,2 ?C 82 % 1017,2 hPa 0,0 l/m? 10,4 km/h (2 Bft) W-NW 290 ? 0 min 193 W/m? 12,8 ?C 17,7 km/h (3 Bft)
28.05.2024 12:48 16,0 ?C 18,0 ?C 18,4 ?C 83 % 1017,2 hPa 0,0 l/m? 7,1 km/h (2 Bft) W-NW 290 ? 0 min 167 W/m? 13,1 ?C 12,9 km/h (3 Bft)
28.05.2024 12:51 16,1 ?C 18,0 ?C 18,5 ?C 84 % 1017,1 hPa 0,0 l/m? 6,3 km/h (2 Bft) W 279 ? 0 min 145 W/m? 13,4 ?C 11,3 km/h (2 Bft)
28.05.2024 12:54 16,1 ?C 17,7 ?C 17,6 ?C 83 % 1017,2 hPa 0,0 l/m? 12,8 km/h (3 Bft) W-NW 282 ? 0 min 122 W/m? 13,2 ?C 20,9 km/h (4 Bft)
28.05.2024 12:57 15,8 ?C 17,1 ?C 16,9 ?C 81 % 1017,3 hPa 0,0 l/m? 12,4 km/h (2 Bft) W 266 ? 0 min 94 W/m? 12,5 ?C 19,3 km/h (3 Bft)
28.05.2024 13:00 15,7 ?C 17,0 ?C 16,6 ?C 82 % 1017,3 hPa 0,0 l/m? 11,8 km/h (2 Bft) W 268 ? 0 min 79 W/m? 12,6 ?C 19,3 km/h (3 Bft)
28.05.2024 13:03 15,5 ?C 16,7 ?C 16,3 ?C 82 % 1017,5 hPa 0,0 l/m? 11,7 km/h (2 Bft) W 262 ? 0 min 67 W/m? 12,4 ?C 19,3 km/h (3 Bft)
28.05.2024 13:06 15,4 ?C 16,5 ?C 16,1 ?C 82 % 1017,7 hPa 0,0 l/m? 6,9 km/h (2 Bft) W-SW 246 ? 0 min 57 W/m? 12,3 ?C 12,9 km/h (3 Bft)
28.05.2024 13:09 15,3 ?C 16,6 ?C 16,1 ?C 83 % 1017,7 hPa 0,0 l/m? 7,5 km/h (2 Bft) W 261 ? 0 min 64 W/m? 12,4 ?C 11,3 km/h (2 Bft)
28.05.2024 13:12 15,2 ?C 16,9 ?C 16,4 ?C 84 % 1017,6 hPa 0,0 l/m? 5,3 km/h (1 Bft) W 270 ? 0 min 73 W/m? 12,5 ?C 12,9 km/h (3 Bft)
28.05.2024 13:15 15,3 ?C 16,8 ?C 16,5 ?C 85 % 1017,5 hPa 0,0 l/m? 7,0 km/h (2 Bft) W 264 ? 0 min 91 W/m? 12,8 ?C 14,5 km/h (3 Bft)
28.05.2024 13:18 15,3 ?C 16,8 ?C 16,6 ?C 85 % 1017,4 hPa 0,0 l/m? 7,5 km/h (2 Bft) W 268 ? 0 min 107 W/m? 12,8 ?C 14,5 km/h (3 Bft)
28.05.2024 13:21 15,3 ?C 17,1 ?C 16,9 ?C 86 % 1017,4 hPa 0,0 l/m? 6,5 km/h (2 Bft) W 264 ? 0 min 128 W/m? 13,0 ?C 14,5 km/h (3 Bft)
28.05.2024 13:24 15,4 ?C 17,5 ?C 17,4 ?C 86 % 1017,4 hPa 0,0 l/m? 7,1 km/h (2 Bft) W 270 ? 0 min 152 W/m? 13,1 ?C 14,5 km/h (3 Bft)
28.05.2024 13:27 15,4 ?C 17,6 ?C 17,5 ?C 86 % 1017,4 hPa 0,0 l/m? 7,7 km/h (2 Bft) W 264 ? 0 min 155 W/m? 13,1 ?C 14,5 km/h (3 Bft)
28.05.2024 13:30 15,4 ?C 17,5 ?C 17,4 ?C 86 % 1017,3 hPa 0,0 l/m? 8,3 km/h (2 Bft) W 263 ? 0 min 146 W/m? 13,1 ?C 12,9 km/h (3 Bft)
28.05.2024 13:33 15,4 ?C 17,6 ?C 17,4 ?C 86 % 1017,3 hPa 0,0 l/m? 5,7 km/h (2 Bft) W 262 ? 0 min 142 W/m? 13,1 ?C 11,3 km/h (2 Bft)
28.05.2024 13:36 15,4 ?C 17,6 ?C 17,2 ?C 86 % 1017,3 hPa 0,0 l/m? 7,6 km/h (2 Bft) W 268 ? 0 min 120 W/m? 13,1 ?C 12,9 km/h (3 Bft)
28.05.2024 13:39 15,4 ?C 17,4 ?C 16,9 ?C 86 % 1017,4 hPa 0,0 l/m? 7,4 km/h (2 Bft) W-SW 256 ? 0 min 105 W/m? 13,1 ?C 12,9 km/h (3 Bft)
28.05.2024 13:42 15,3 ?C 17,2 ?C 16,7 ?C 87 % 1017,3 hPa 0,0 l/m? 7,9 km/h (2 Bft) W 269 ? 0 min 103 W/m? 13,1 ?C 16,1 km/h (3 Bft)
28.05.2024 13:45 15,2 ?C 17,2 ?C 16,7 ?C 87 % 1017,3 hPa 0,2 l/m? 6,6 km/h (2 Bft) W 266 ? 0 min 107 W/m? 13,0 ?C 12,9 km/h (3 Bft)
28.05.2024 13:48 15,2 ?C 17,3 ?C 16,6 ?C 87 % 1017,4 hPa 0,0 l/m? 9,2 km/h (2 Bft) W 271 ? 0 min 112 W/m? 13,0 ?C 17,7 km/h (3 Bft)
28.05.2024 13:51 15,2 ?C 17,2 ?C 16,4 ?C 87 % 1017,4 hPa 0,0 l/m? 9,4 km/h (2 Bft) W 261 ? 0 min 115 W/m? 13,0 ?C 16,1 km/h (3 Bft)
28.05.2024 13:54 15,1 ?C 17,0 ?C 16,3 ?C 87 % 1017,4 hPa 0,0 l/m? 10,3 km/h (2 Bft) W 267 ? 0 min 100 W/m? 13,0 ?C 17,7 km/h (3 Bft)
28.05.2024 13:57 15,0 ?C 16,8 ?C 16,2 ?C 87 % 1017,4 hPa 0,0 l/m? 9,2 km/h (2 Bft) W 261 ? 0 min 94 W/m? 12,9 ?C 17,7 km/h (3 Bft)
28.05.2024 14:00 14,9 ?C 16,8 ?C 16,3 ?C 87 % 1017,5 hPa 0,0 l/m? 6,9 km/h (2 Bft) W-SW 257 ? 0 min 103 W/m? 12,8 ?C 12,9 km/h (3 Bft)
28.05.2024 14:03 14,9 ?C 16,8 ?C 16,5 ?C 87 % 1017,4 hPa 0,0 l/m? 8,2 km/h (2 Bft) W 273 ? 0 min 119 W/m? 12,8 ?C 14,5 km/h (3 Bft)
28.05.2024 14:06 15,0 ?C 17,2 ?C 17,3 ?C 87 % 1017,4 hPa 0,0 l/m? 4,9 km/h (1 Bft) W 268 ? 0 min 138 W/m? 12,9 ?C 11,3 km/h (2 Bft)
28.05.2024 14:09 15,2 ?C 17,6 ?C 17,5 ?C 88 % 1017,3 hPa 0,0 l/m? 6,5 km/h (2 Bft) W 266 ? 0 min 145 W/m? 13,2 ?C 11,3 km/h (2 Bft)
28.05.2024 14:12 15,3 ?C 18,1 ?C 18,0 ?C 88 % 1017,2 hPa 0,0 l/m? 3,7 km/h (1 Bft) W-NW 286 ? 0 min 133 W/m? 13,3 ?C 9,7 km/h (2 Bft)
28.05.2024 14:15 15,4 ?C 18,0 ?C 17,5 ?C 88 % 1017,3 hPa 0,0 l/m? 6,0 km/h (2 Bft) W 263 ? 0 min 125 W/m? 13,4 ?C 11,3 km/h (2 Bft)
28.05.2024 14:18 15,2 ?C 17,7 ?C 17,2 ?C 87 % 1017,3 hPa 0,0 l/m? 8,0 km/h (2 Bft) W-SW 240 ? 0 min 131 W/m? 13,0 ?C 12,9 km/h (3 Bft)
28.05.2024 14:21 15,2 ?C 17,7 ?C 17,3 ?C 87 % 1017,3 hPa 0,0 l/m? 4,7 km/h (1 Bft) W-SW 238 ? 0 min 148 W/m? 13,0 ?C 9,7 km/h (2 Bft)
28.05.2024 14:24 15,3 ?C 17,9 ?C 17,3 ?C 87 % 1017,3 hPa 0,0 l/m? 5,9 km/h (2 Bft) W-SW 252 ? 0 min 157 W/m? 13,1 ?C 11,3 km/h (2 Bft)
28.05.2024 14:27 15,3 ?C 17,9 ?C 17,3 ?C 87 % 1017,3 hPa 0,0 l/m? 5,9 km/h (2 Bft) SW 231 ? 0 min 163 W/m? 13,1 ?C 9,7 km/h (2 Bft)
28.05.2024 14:30 15,3 ?C 18,0 ?C 17,5 ?C 86 % 1017,2 hPa 0,0 l/m? 5,3 km/h (1 Bft) W-SW 251 ? 0 min 163 W/m? 13,0 ?C 11,3 km/h (2 Bft)
28.05.2024 14:33 15,3 ?C 17,7 ?C 17,3 ?C 85 % 1017,2 hPa 0,0 l/m? 5,7 km/h (2 Bft) W 265 ? 0 min 179 W/m? 12,8 ?C 9,7 km/h (2 Bft)
28.05.2024 14:36 15,4 ?C 18,1 ?C 17,9 ?C 86 % 1017,2 hPa 0,0 l/m? 3,9 km/h (1 Bft) W 266 ? 0 min 208 W/m? 13,1 ?C 6,4 km/h (2 Bft)
28.05.2024 14:39 15,5 ?C 18,7 ?C 18,7 ?C 85 % 1017,2 hPa 0,0 l/m? 2,9 km/h (1 Bft) W 265 ? 0 min 221 W/m? 13,0 ?C 4,8 km/h (1 Bft)
28.05.2024 14:42 15,8 ?C 18,8 ?C 19,0 ?C 85 % 1017,1 hPa 0,0 l/m? 5,7 km/h (2 Bft) W-SW 256 ? 0 min 230 W/m? 13,3 ?C 12,9 km/h (3 Bft)
28.05.2024 14:45 15,8 ?C 18,5 ?C 18,7 ?C 83 % 1017,1 hPa 0,0 l/m? 7,8 km/h (2 Bft) W 265 ? 0 min 253 W/m? 12,9 ?C 12,9 km/h (3 Bft)
28.05.2024 14:48 15,9 ?C 18,9 ?C 19,0 ?C 83 % 1017,0 hPa 0,2 l/m? 7,2 km/h (2 Bft) W-SW 244 ? 0 min 286 W/m? 13,0 ?C 12,9 km/h (3 Bft)
28.05.2024 14:51 15,9 ?C 19,5 ?C 19,6 ?C 83 % 1017,1 hPa 0,0 l/m? 4,6 km/h (1 Bft) W-SW 244 ? 0 min 317 W/m? 13,0 ?C 12,9 km/h (3 Bft)
28.05.2024 14:54 16,2 ?C 19,7 ?C 20,0 ?C 83 % 1017,1 hPa 0,0 l/m? 6,0 km/h (2 Bft) W-SW 238 ? 0 min 325 W/m? 13,3 ?C 12,9 km/h (3 Bft)
28.05.2024 14:57 16,3 ?C 19,5 ?C 20,2 ?C 83 % 1017,1 hPa 0,0 l/m? 4,0 km/h (1 Bft) SW 235 ? 0 min 319 W/m? 13,4 ?C 9,7 km/h (2 Bft)
28.05.2024 15:00 16,5 ?C 20,0 ?C 20,5 ?C 83 % 1017,1 hPa 0,0 l/m? 4,3 km/h (1 Bft) W 268 ? 0 min 295 W/m? 13,6 ?C 9,7 km/h (2 Bft)
28.05.2024 15:03 16,6 ?C 20,5 ?C 20,5 ?C 82 % 1017,0 hPa 0,0 l/m? 7,3 km/h (2 Bft) W-SW 241 ? 0 min 360 W/m? 13,5 ?C 14,5 km/h (3 Bft)
28.05.2024 15:06 16,7 ?C 20,6 ?C 20,6 ?C 81 % 1016,9 hPa 0,0 l/m? 7,0 km/h (2 Bft) W 260 ? 0 min 290 W/m? 13,4 ?C 14,5 km/h (3 Bft)
28.05.2024 15:09 16,7 ?C 20,1 ?C 20,2 ?C 81 % 1016,9 hPa 0,0 l/m? 5,8 km/h (2 Bft) W-SW 257 ? 0 min 294 W/m? 13,4 ?C 11,3 km/h (2 Bft)
28.05.2024 15:12 16,7 ?C 20,2 ?C 20,5 ?C 81 % 1016,8 hPa 0,0 l/m? 6,1 km/h (2 Bft) W 259 ? 0 min 278 W/m? 13,4 ?C 16,1 km/h (3 Bft)
28.05.2024 15:15 16,8 ?C 20,3 ?C 20,2 ?C 81 % 1016,8 hPa 0,0 l/m? 7,9 km/h (2 Bft) W-SW 252 ? 0 min 293 W/m? 13,5 ?C 14,5 km/h (3 Bft)
28.05.2024 15:18 16,8 ?C 20,4 ?C 19,7 ?C 81 % 1016,8 hPa 0,0 l/m? 10,5 km/h (2 Bft) W 269 ? 0 min 273 W/m? 13,5 ?C 19,3 km/h (3 Bft)
28.05.2024 15:21 16,8 ?C 20,4 ?C 20,2 ?C 81 % 1016,8 hPa 0,0 l/m? 9,6 km/h (2 Bft) W 275 ? 0 min 365 W/m? 13,5 ?C 16,1 km/h (3 Bft)
28.05.2024 15:24 16,9 ?C 20,4 ?C 20,2 ?C 80 % 1016,6 hPa 0,0 l/m? 10,7 km/h (2 Bft) W 264 ? 0 min 367 W/m? 13,4 ?C 17,7 km/h (3 Bft)
28.05.2024 15:27 17,0 ?C 20,7 ?C 20,8 ?C 80 % 1016,5 hPa 0,0 l/m? 6,6 km/h (2 Bft) W 259 ? 3 min 425 W/m? 13,5 ?C 12,9 km/h (3 Bft)
28.05.2024 15:30 17,2 ?C 20,9 ?C 20,5 ?C 80 % 1016,4 hPa 0,0 l/m? 8,7 km/h (2 Bft) W-NW 283 ? 3 min 436 W/m? 13,7 ?C 14,5 km/h (3 Bft)
28.05.2024 15:33 17,3 ?C 21,1 ?C 21,1 ?C 80 % 1016,4 hPa 0,0 l/m? 5,6 km/h (2 Bft) W-SW 249 ? 3 min 435 W/m? 13,8 ?C 14,5 km/h (3 Bft)
28.05.2024 15:36 17,5 ?C 21,0 ?C 20,6 ?C 79 % 1016,3 hPa 0,0 l/m? 9,3 km/h (2 Bft) W 267 ? 0 min 385 W/m? 13,8 ?C 16,1 km/h (3 Bft)
28.05.2024 15:39 17,4 ?C 20,8 ?C 21,0 ?C 78 % 1016,4 hPa 0,0 l/m? 7,1 km/h (2 Bft) W 263 ? 0 min 301 W/m? 13,5 ?C 14,5 km/h (3 Bft)
28.05.2024 15:42 17,5 ?C 20,7 ?C 20,8 ?C 79 % 1016,4 hPa 0,0 l/m? 9,1 km/h (2 Bft) W 279 ? 3 min 489 W/m? 13,8 ?C 17,7 km/h (3 Bft)
28.05.2024 15:45 17,7 ?C 21,4 ?C 21,9 ?C 78 % 1016,4 hPa 0,0 l/m? 7,2 km/h (2 Bft) W-SW 243 ? 3 min 597 W/m? 13,8 ?C 16,1 km/h (3 Bft)
28.05.2024 15:48 18,1 ?C 21,4 ?C 21,5 ?C 78 % 1016,4 hPa 0,0 l/m? 10,3 km/h (2 Bft) W 263 ? 3 min 502 W/m? 14,2 ?C 14,5 km/h (3 Bft)
28.05.2024 15:51 18,3 ?C 21,4 ?C 21,6 ?C 78 % 1016,4 hPa 0,0 l/m? 7,4 km/h (2 Bft) W 264 ? 3 min 517 W/m? 14,4 ?C 11,3 km/h (2 Bft)
28.05.2024 15:54 18,5 ?C 21,4 ?C 21,9 ?C 77 % 1016,4 hPa 0,0 l/m? 8,8 km/h (2 Bft) W 266 ? 0 min 275 W/m? 14,4 ?C 19,3 km/h (3 Bft)
28.05.2024 15:57 18,3 ?C 21,1 ?C 21,1 ?C 76 % 1016,4 hPa 0,0 l/m? 10,1 km/h (2 Bft) W 281 ? 0 min 251 W/m? 14,0 ?C 19,3 km/h (3 Bft)
28.05.2024 16:00 18,0 ?C 20,8 ?C 20,9 ?C 76 % 1016,5 hPa 0,0 l/m? 12,5 km/h (2 Bft) W 261 ? 3 min 566 W/m? 13,7 ?C 19,3 km/h (3 Bft)
28.05.2024 16:03 18,0 ?C 20,9 ?C 21,5 ?C 76 % 1016,6 hPa 0,0 l/m? 8,4 km/h (2 Bft) W 280 ? 0 min 357 W/m? 13,7 ?C 19,3 km/h (3 Bft)
28.05.2024 16:06 18,0 ?C 20,7 ?C 21,3 ?C 75 % 1016,6 hPa 0,0 l/m? 10,4 km/h (2 Bft) W 262 ? 0 min 281 W/m? 13,5 ?C 16,1 km/h (3 Bft)
28.05.2024 16:09 17,9 ?C 20,3 ?C 20,9 ?C 75 % 1016,7 hPa 0,0 l/m? 11,4 km/h (2 Bft) W-NW 290 ? 0 min 232 W/m? 13,4 ?C 17,7 km/h (3 Bft)
28.05.2024 16:12 17,7 ?C 19,8 ?C 20,3 ?C 73 % 1016,6 hPa 0,0 l/m? 9,8 km/h (2 Bft) W 275 ? 0 min 206 W/m? 12,8 ?C 19,3 km/h (3 Bft)
28.05.2024 16:15 17,5 ?C 19,5 ?C 20,5 ?C 74 % 1016,6 hPa 0,0 l/m? 7,7 km/h (2 Bft) W 276 ? 0 min 213 W/m? 12,8 ?C 14,5 km/h (3 Bft)
28.05.2024 16:18 17,5 ?C 19,5 ?C 20,7 ?C 74 % 1016,6 hPa 0,0 l/m? 8,2 km/h (2 Bft) W 263 ? 0 min 231 W/m? 12,8 ?C 16,1 km/h (3 Bft)
28.05.2024 16:21 17,5 ?C 19,8 ?C 20,6 ?C 75 % 1016,6 hPa 0,0 l/m? 5,8 km/h (2 Bft) W 267 ? 0 min 225 W/m? 13,0 ?C 11,3 km/h (2 Bft)
28.05.2024 16:24 17,5 ?C 19,9 ?C 20,6 ?C 75 % 1016,6 hPa 0,0 l/m? 6,5 km/h (2 Bft) W 274 ? 0 min 221 W/m? 13,0 ?C 12,9 km/h (3 Bft)
28.05.2024 16:27 17,6 ?C 19,9 ?C 20,7 ?C 76 % 1016,7 hPa 0,0 l/m? 6,0 km/h (2 Bft) W 265 ? 0 min 230 W/m? 13,3 ?C 11,3 km/h (2 Bft)
28.05.2024 16:30 17,6 ?C 20,0 ?C 20,5 ?C 76 % 1016,7 hPa 0,0 l/m? 6,1 km/h (2 Bft) W 268 ? 0 min 238 W/m? 13,3 ?C 11,3 km/h (2 Bft)
28.05.2024 16:33 17,7 ?C 20,1 ?C 20,5 ?C 76 % 1016,8 hPa 0,0 l/m? 8,0 km/h (2 Bft) W-NW 283 ? 0 min 220 W/m? 13,4 ?C 16,1 km/h (3 Bft)
28.05.2024 16:36 17,7 ?C 19,8 ?C 19,9 ?C 75 % 1016,8 hPa 0,0 l/m? 9,4 km/h (2 Bft) W 267 ? 0 min 207 W/m? 13,2 ?C 16,1 km/h (3 Bft)
28.05.2024 16:39 17,5 ?C 19,5 ?C 19,7 ?C 74 % 1016,9 hPa 0,0 l/m? 8,2 km/h (2 Bft) W 261 ? 0 min 181 W/m? 12,8 ?C 12,9 km/h (3 Bft)
28.05.2024 16:42 17,4 ?C 19,4 ?C 19,3 ?C 74 % 1016,9 hPa 0,0 l/m? 10,4 km/h (2 Bft) W 262 ? 0 min 176 W/m? 12,7 ?C 19,3 km/h (3 Bft)
28.05.2024 16:45 17,3 ?C 19,3 ?C 19,3 ?C 74 % 1016,9 hPa 0,0 l/m? 5,7 km/h (2 Bft) W-SW 252 ? 0 min 142 W/m? 12,6 ?C 12,9 km/h (3 Bft)
28.05.2024 16:48 17,3 ?C 19,3 ?C 19,3 ?C 75 % 1017,0 hPa 0,0 l/m? 6,9 km/h (2 Bft) W 268 ? 0 min 122 W/m? 12,8 ?C 12,9 km/h (3 Bft)
28.05.2024 16:51 17,1 ?C 18,8 ?C 18,8 ?C 75 % 1017,1 hPa 0,0 l/m? 8,3 km/h (2 Bft) W 267 ? 0 min 113 W/m? 12,6 ?C 16,1 km/h (3 Bft)
28.05.2024 16:54 17,1 ?C 18,6 ?C 18,5 ?C 75 % 1017,1 hPa 0,0 l/m? 9,7 km/h (2 Bft) W 268 ? 0 min 110 W/m? 12,6 ?C 16,1 km/h (3 Bft)
28.05.2024 16:57 17,0 ?C 18,4 ?C 18,2 ?C 75 % 1017,0 hPa 0,0 l/m? 8,7 km/h (2 Bft) W 265 ? 0 min 99 W/m? 12,5 ?C 14,5 km/h (3 Bft)
28.05.2024 17:00 16,9 ?C 18,4 ?C 18,6 ?C 76 % 1017,0 hPa 0,0 l/m? 3,6 km/h (1 Bft) W-SW 255 ? 0 min 84 W/m? 12,6 ?C 6,4 km/h (2 Bft)
28.05.2024 17:03 16,8 ?C 18,4 ?C 18,6 ?C 76 % 1017,0 hPa 0,0 l/m? 4,8 km/h (1 Bft) W-SW 258 ? 0 min 81 W/m? 12,5 ?C 9,7 km/h (2 Bft)
28.05.2024 17:06 16,8 ?C 18,4 ?C 18,3 ?C 77 % 1017,0 hPa 0,0 l/m? 5,7 km/h (2 Bft) W 274 ? 0 min 71 W/m? 12,7 ?C 11,3 km/h (2 Bft)
28.05.2024 17:09 16,8 ?C 18,3 ?C 18,0 ?C 76 % 1017,0 hPa 0,0 l/m? 6,4 km/h (2 Bft) W 269 ? 0 min 67 W/m? 12,5 ?C 11,3 km/h (2 Bft)
28.05.2024 17:12 16,7 ?C 18,2 ?C 17,9 ?C 77 % 1017,0 hPa 0,0 l/m? 6,9 km/h (2 Bft) W-NW 295 ? 0 min 68 W/m? 12,6 ?C 12,9 km/h (3 Bft)
28.05.2024 17:15 16,7 ?C 18,0 ?C 17,9 ?C 77 % 1017,0 hPa 0,0 l/m? 2,3 km/h (1 Bft) W 277 ? 0 min 62 W/m? 12,6 ?C 6,4 km/h (2 Bft)
28.05.2024 17:18 16,7 ?C 18,0 ?C 18,1 ?C 77 % 1017,0 hPa 0,0 l/m? 3,0 km/h (1 Bft) W 260 ? 0 min 60 W/m? 12,6 ?C 6,4 km/h (2 Bft)
28.05.2024 17:21 16,6 ?C 18,0 ?C 17,9 ?C 77 % 1017,0 hPa 0,0 l/m? 3,2 km/h (1 Bft) W 275 ? 0 min 62 W/m? 12,5 ?C 6,4 km/h (2 Bft)
28.05.2024 17:24 16,6 ?C 18,0 ?C 18,1 ?C 77 % 1017,0 hPa 0,0 l/m? 2,1 km/h (1 Bft) SW 231 ? 0 min 56 W/m? 12,5 ?C 4,8 km/h (1 Bft)
28.05.2024 17:27 16,6 ?C 18,1 ?C 18,1 ?C 78 % 1017,0 hPa 0,0 l/m? 3,3 km/h (1 Bft) SW 231 ? 0 min 47 W/m? 12,7 ?C 6,4 km/h (2 Bft)
28.05.2024 17:30 16,6 ?C 17,8 ?C 17,8 ?C 78 % 1017,1 hPa 0,0 l/m? 2,2 km/h (1 Bft) W-SW 251 ? 0 min 47 W/m? 12,7 ?C 4,8 km/h (1 Bft)
28.05.2024 17:33 16,6 ?C 17,9 ?C 17,7 ?C 78 % 1017,1 hPa 0,0 l/m? 3,0 km/h (1 Bft) W-SW 253 ? 0 min 52 W/m? 12,7 ?C 4,8 km/h (1 Bft)
28.05.2024 17:36 16,5 ?C 17,9 ?C 17,6 ?C 78 % 1017,1 hPa 0,0 l/m? 2,9 km/h (1 Bft) W 267 ? 0 min 56 W/m? 12,6 ?C 4,8 km/h (1 Bft)
28.05.2024 17:39 16,5 ?C 17,9 ?C 17,6 ?C 78 % 1017,1 hPa 0,0 l/m? 3,1 km/h (1 Bft) W-SW 256 ? 0 min 58 W/m? 12,6 ?C 4,8 km/h (1 Bft)
28.05.2024 17:42 16,5 ?C 17,8 ?C 17,6 ?C 78 % 1017,1 hPa 0,0 l/m? 2,2 km/h (1 Bft) W-SW 247 ? 0 min 62 W/m? 12,6 ?C 4,8 km/h (1 Bft)
28.05.2024 17:45 16,5 ?C 17,8 ?C 17,7 ?C 78 % 1017,1 hPa 0,0 l/m? 2,1 km/h (1 Bft) W-SW 247 ? 0 min 60 W/m? 12,6 ?C 3,2 km/h (1 Bft)
28.05.2024 17:48 16,6 ?C 18,0 ?C 17,7 ?C 79 % 1017,1 hPa 0,0 l/m? 2,2 km/h (1 Bft) W-SW 247 ? 0 min 54 W/m? 12,9 ?C 6,4 km/h (2 Bft)
28.05.2024 17:51 16,5 ?C 17,8 ?C 17,4 ?C 78 % 1017,1 hPa 0,0 l/m? 4,2 km/h (1 Bft) W-SW 248 ? 0 min 52 W/m? 12,6 ?C 6,4 km/h (2 Bft)
28.05.2024 17:54 16,5 ?C 17,6 ?C 17,3 ?C 78 % 1017,1 hPa 0,0 l/m? 2,5 km/h (1 Bft) W-SW 251 ? 0 min 51 W/m? 12,6 ?C 4,8 km/h (1 Bft)
28.05.2024 17:57 16,4 ?C 17,5 ?C 17,4 ?C 78 % 1017,2 hPa 0,0 l/m? 2,5 km/h (1 Bft) W-SW 243 ? 0 min 54 W/m? 12,6 ?C 3,2 km/h (1 Bft)
28.05.2024 18:00 16,4 ?C 17,6 ?C 17,4 ?C 78 % 1017,2 hPa 0,0 l/m? 1,9 km/h (1 Bft) W-SW 240 ? 0 min 55 W/m? 12,6 ?C 3,2 km/h (1 Bft)
28.05.2024 18:03 16,4 ?C 17,7 ?C 17,4 ?C 78 % 1017,1 hPa 0,0 l/m? 2,2 km/h (1 Bft) W-SW 241 ? 0 min 56 W/m? 12,6 ?C 4,8 km/h (1 Bft)
28.05.2024 18:06 16,4 ?C 17,7 ?C 17,3 ?C 78 % 1017,2 hPa 0,0 l/m? 2,5 km/h (1 Bft) W-SW 243 ? 0 min 57 W/m? 12,6 ?C 4,8 km/h (1 Bft)
28.05.2024 18:09 16,5 ?C 17,8 ?C 17,4 ?C 78 % 1017,2 hPa 0,0 l/m? 1,9 km/h (1 Bft) W-SW 247 ? 0 min 59 W/m? 12,6 ?C 4,8 km/h (1 Bft)
28.05.2024 18:12 16,5 ?C 17,8 ?C 17,5 ?C 78 % 1017,2 hPa 0,0 l/m? 1,9 km/h (1 Bft) W-SW 247 ? 0 min 60 W/m? 12,6 ?C 4,8 km/h (1 Bft)
28.05.2024 18:15 16,4 ?C 17,5 ?C 17,5 ?C 78 % 1017,1 hPa 0,0 l/m? 1,2 km/h (1 Bft) W-SW 247 ? 0 min 63 W/m? 12,6 ?C 3,2 km/h (1 Bft)
28.05.2024 18:18 16,5 ?C 17,6 ?C 17,5 ?C 78 % 1017,1 hPa 0,0 l/m? 2,7 km/h (1 Bft) W-SW 241 ? 0 min 72 W/m? 12,6 ?C 4,8 km/h (1 Bft)
28.05.2024 18:21 16,5 ?C 17,6 ?C 17,5 ?C 78 % 1017,1 hPa 0,0 l/m? 3,3 km/h (1 Bft) SW 221 ? 0 min 74 W/m? 12,6 ?C 4,8 km/h (1 Bft)
28.05.2024 18:24 16,5 ?C 17,7 ?C 17,7 ?C 78 % 1017,1 hPa 0,0 l/m? 2,0 km/h (1 Bft) SW 221 ? 0 min 69 W/m? 12,6 ?C 4,8 km/h (1 Bft)
28.05.2024 18:27 16,5 ?C 17,6 ?C 17,6 ?C 77 % 1017,1 hPa 0,0 l/m? 0,9 km/h (0 Bft) SW 223 ? 0 min 69 W/m? 12,5 ?C 3,2 km/h (1 Bft)
28.05.2024 18:30 16,5 ?C 17,6 ?C 17,5 ?C 78 % 1017,1 hPa 0,0 l/m? 2,1 km/h (1 Bft) SW 223 ? 0 min 76 W/m? 12,6 ?C 4,8 km/h (1 Bft)
28.05.2024 18:33 16,6 ?C 17,3 ?C 17,4 ?C 77 % 1017,1 hPa 0,0 l/m? 1,4 km/h (1 Bft) SW 221 ? 0 min 85 W/m? 12,5 ?C 3,2 km/h (1 Bft)
28.05.2024 18:36 16,5 ?C 17,3 ?C 17,5 ?C 76 % 1017,1 hPa 0,0 l/m? 1,9 km/h (1 Bft) SW 219 ? 0 min 97 W/m? 12,3 ?C 4,8 km/h (1 Bft)
28.05.2024 18:39 16,5 ?C 17,5 ?C 17,8 ?C 77 % 1017,1 hPa 0,0 l/m? 2,9 km/h (1 Bft) SW 222 ? 0 min 108 W/m? 12,5 ?C 4,8 km/h (1 Bft)
28.05.2024 18:42 16,6 ?C 17,7 ?C 18,0 ?C 78 % 1017,0 hPa 0,0 l/m? 1,0 km/h (0 Bft) W-SW 240 ? 0 min 114 W/m? 12,7 ?C 3,2 km/h (1 Bft)
28.05.2024 18:45 16,6 ?C 17,6 ?C 17,7 ?C 77 % 1017,0 hPa 0,0 l/m? 2,8 km/h (1 Bft) S-SW 196 ? 0 min 112 W/m? 12,5 ?C 4,8 km/h (1 Bft)
28.05.2024 18:48 16,7 ?C 17,6 ?C 17,7 ?C 77 % 1017,0 hPa 0,0 l/m? 2,0 km/h (1 Bft) S-SW 193 ? 0 min 116 W/m? 12,6 ?C 3,2 km/h (1 Bft)
28.05.2024 18:51 16,7 ?C 17,9 ?C 18,0 ?C 77 % 1017,0 hPa 0,0 l/m? 2,1 km/h (1 Bft) S-SW 193 ? 0 min 107 W/m? 12,6 ?C 3,2 km/h (1 Bft)
28.05.2024 18:54 16,7 ?C 17,9 ?C 18,1 ?C 76 % 1017,0 hPa 0,0 l/m? 2,4 km/h (1 Bft) S-SW 193 ? 0 min 104 W/m? 12,4 ?C 4,8 km/h (1 Bft)
28.05.2024 18:57 16,7 ?C 17,9 ?C 18,1 ?C 76 % 1017,1 hPa 0,0 l/m? 3,7 km/h (1 Bft) SW 215 ? 0 min 104 W/m? 12,4 ?C 6,4 km/h (2 Bft)
28.05.2024 19:00 16,7 ?C 17,8 ?C 18,1 ?C 76 % 1017,0 hPa 0,0 l/m? 0,7 km/h (0 Bft) SW 219 ? 0 min 99 W/m? 12,4 ?C 3,2 km/h (1 Bft)
28.05.2024 19:03 16,7 ?C 17,5 ?C 18,2 ?C 77 % 1017,1 hPa 0,0 l/m? 2,4 km/h (1 Bft) SW 229 ? 0 min 106 W/m? 12,6 ?C 4,8 km/h (1 Bft)
28.05.2024 19:06 16,7 ?C 17,6 ?C 18,0 ?C 76 % 1017,2 hPa 0,0 l/m? 2,2 km/h (1 Bft) SW 226 ? 0 min 95 W/m? 12,4 ?C 4,8 km/h (1 Bft)
28.05.2024 19:09 16,7 ?C 17,5 ?C 17,8 ?C 76 % 1017,2 hPa 0,0 l/m? 2,2 km/h (1 Bft) SW 223 ? 0 min 83 W/m? 12,4 ?C 3,2 km/h (1 Bft)
28.05.2024 19:12 16,7 ?C 17,2 ?C 17,3 ?C 76 % 1017,2 hPa 0,0 l/m? 3,1 km/h (1 Bft) S 181 ? 0 min 76 W/m? 12,4 ?C 4,8 km/h (1 Bft)
28.05.2024 19:15 16,6 ?C 17,1 ?C 17,3 ?C 76 % 1017,2 hPa 0,0 l/m? 1,7 km/h (1 Bft) S 170 ? 0 min 73 W/m? 12,3 ?C 3,2 km/h (1 Bft)
28.05.2024 19:18 16,6 ?C 17,4 ?C 17,7 ?C 78 % 1017,2 hPa 0,0 l/m? 1,4 km/h (1 Bft) S-SW 209 ? 0 min 74 W/m? 12,7 ?C 3,2 km/h (1 Bft)
28.05.2024 19:21 16,7 ?C 17,6 ?C 17,7 ?C 78 % 1017,2 hPa 0,0 l/m? 0,3 km/h (0 Bft) SW 217 ? 0 min 78 W/m? 12,8 ?C 1,6 km/h (1 Bft)
28.05.2024 19:24 16,7 ?C 17,5 ?C 17,3 ?C 78 % 1017,2 hPa 0,0 l/m? 2,4 km/h (1 Bft) S-SW 194 ? 0 min 90 W/m? 12,8 ?C 3,2 km/h (1 Bft)
28.05.2024 19:27 16,7 ?C 17,5 ?C 17,0 ?C 78 % 1017,3 hPa 0,0 l/m? 3,4 km/h (1 Bft) SO 144 ? 0 min 84 W/m? 12,8 ?C 4,8 km/h (1 Bft)
28.05.2024 19:30 16,7 ?C 17,5 ?C 17,2 ?C 78 % 1017,3 hPa 0,0 l/m? 2,3 km/h (1 Bft) S 171 ? 0 min 79 W/m? 12,8 ?C 3,2 km/h (1 Bft)
28.05.2024 19:33 16,7 ?C 17,5 ?C 17,3 ?C 78 % 1017,3 hPa 0,0 l/m? 3,0 km/h (1 Bft) S 176 ? 0 min 81 W/m? 12,8 ?C 6,4 km/h (2 Bft)
28.05.2024 19:36 16,6 ?C 17,4 ?C 17,2 ?C 78 % 1017,2 hPa 0,0 l/m? 3,2 km/h (1 Bft) S 176 ? 0 min 74 W/m? 12,7 ?C 6,4 km/h (2 Bft)
28.05.2024 19:39 16,6 ?C 17,5 ?C 17,4 ?C 78 % 1017,3 hPa 0,0 l/m? 3,0 km/h (1 Bft) S-SW 193 ? 0 min 56 W/m? 12,7 ?C 4,8 km/h (1 Bft)
28.05.2024 19:42 16,6 ?C 17,3 ?C 17,3 ?C 78 % 1017,2 hPa 0,0 l/m? 3,6 km/h (1 Bft) S 179 ? 0 min 45 W/m? 12,7 ?C 8,0 km/h (2 Bft)
28.05.2024 19:45 16,5 ?C 17,2 ?C 17,2 ?C 78 % 1017,2 hPa 0,0 l/m? 3,3 km/h (1 Bft) SW 218 ? 0 min 38 W/m? 12,6 ?C 6,4 km/h (2 Bft)
28.05.2024 19:48 16,5 ?C 17,2 ?C 17,3 ?C 78 % 1017,2 hPa 0,0 l/m? 2,6 km/h (1 Bft) SW 228 ? 0 min 34 W/m? 12,6 ?C 4,8 km/h (1 Bft)
28.05.2024 19:51 16,5 ?C 17,1 ?C 17,2 ?C 79 % 1017,3 hPa 0,0 l/m? 2,0 km/h (1 Bft) SW 215 ? 0 min 29 W/m? 12,8 ?C 4,8 km/h (1 Bft)
28.05.2024 19:54 16,4 ?C 17,0 ?C 17,1 ?C 79 % 1017,2 hPa 0,0 l/m? 3,2 km/h (1 Bft) SW 223 ? 0 min 25 W/m? 12,7 ?C 6,4 km/h (2 Bft)
28.05.2024 19:57 16,4 ?C 17,1 ?C 16,8 ?C 79 % 1017,3 hPa 0,0 l/m? 2,7 km/h (1 Bft) S-SW 205 ? 0 min 18 W/m? 12,7 ?C 4,8 km/h (1 Bft)
28.05.2024 20:00 16,3 ?C 16,9 ?C 16,7 ?C 79 % 1017,3 hPa 0,0 l/m? 4,3 km/h (1 Bft) S-SW 206 ? 0 min 13 W/m? 12,6 ?C 6,4 km/h (2 Bft)
28.05.2024 20:03 16,3 ?C 16,8 ?C 16,6 ?C 80 % 1017,3 hPa 0,0 l/m? 3,6 km/h (1 Bft) SW 222 ? 0 min 9 W/m? 12,8 ?C 8,0 km/h (2 Bft)
28.05.2024 20:06 16,2 ?C 16,8 ?C 16,5 ?C 80 % 1017,3 hPa 0,0 l/m? 3,9 km/h (1 Bft) SW 228 ? 0 min 6 W/m? 12,7 ?C 8,0 km/h (2 Bft)
28.05.2024 20:09 16,2 ?C 16,6 ?C 16,3 ?C 80 % 1017,4 hPa 0,0 l/m? 4,1 km/h (1 Bft) SW 231 ? 0 min 4 W/m? 12,7 ?C 8,0 km/h (2 Bft)
28.05.2024 20:12 16,1 ?C 16,6 ?C 16,2 ?C 80 % 1017,3 hPa 0,0 l/m? 4,3 km/h (1 Bft) SW 231 ? 0 min 4 W/m? 12,6 ?C 8,0 km/h (2 Bft)
28.05.2024 20:15 16,0 ?C 16,6 ?C 16,1 ?C 81 % 1017,4 hPa 0,0 l/m? 4,7 km/h (1 Bft) W-SW 244 ? 0 min 3 W/m? 12,7 ?C 9,7 km/h (2 Bft)
28.05.2024 20:18 16,0 ?C 16,5 ?C 16,0 ?C 81 % 1017,4 hPa 0,0 l/m? 6,1 km/h (2 Bft) W-SW 239 ? 0 min 2 W/m? 12,7 ?C 12,9 km/h (3 Bft)
28.05.2024 20:21 15,9 ?C 16,4 ?C 15,9 ?C 81 % 1017,4 hPa 0,0 l/m? 6,2 km/h (2 Bft) W-SW 241 ? 0 min 2 W/m? 12,6 ?C 9,7 km/h (2 Bft)
28.05.2024 20:24 15,8 ?C 16,2 ?C 15,5 ?C 82 % 1017,5 hPa 0,0 l/m? 13,4 km/h (3 Bft) W 260 ? 0 min 2 W/m? 12,7 ?C 24,1 km/h (4 Bft)
28.05.2024 20:27 15,3 ?C 15,7 ?C 14,7 ?C 80 % 1017,5 hPa 0,0 l/m? 8,7 km/h (2 Bft) W-SW 257 ? 0 min 2 W/m? 11,9 ?C 19,3 km/h (3 Bft)
28.05.2024 20:30 14,7 ?C 15,2 ?C 14,2 ?C 79 % 1017,5 hPa 0,0 l/m? 12,3 km/h (2 Bft) W 267 ? 0 min 2 W/m? 11,1 ?C 20,9 km/h (4 Bft)
28.05.2024 20:33 14,2 ?C 14,9 ?C 13,9 ?C 79 % 1017,5 hPa 0,2 l/m? 7,6 km/h (2 Bft) W 267 ? 0 min 4 W/m? 10,6 ?C 14,5 km/h (3 Bft)
28.05.2024 20:36 13,9 ?C 14,9 ?C 14,0 ?C 80 % 1017,6 hPa 0,0 l/m? 4,6 km/h (1 Bft) W-SW 253 ? 0 min 4 W/m? 10,5 ?C 8,0 km/h (2 Bft)
28.05.2024 20:39 13,8 ?C 14,9 ?C 13,5 ?C 81 % 1017,6 hPa 0,0 l/m? 4,4 km/h (1 Bft) S-SW 199 ? 0 min 4 W/m? 10,6 ?C 6,4 km/h (2 Bft)
28.05.2024 20:42 13,6 ?C 14,3 ?C 13,0 ?C 82 % 1017,5 hPa 0,2 l/m? 3,2 km/h (1 Bft) S 175 ? 0 min 4 W/m? 10,6 ?C 8,0 km/h (2 Bft)
28.05.2024 20:45 13,5 ?C 14,1 ?C 13,0 ?C 83 % 1017,4 hPa 0,0 l/m? 5,9 km/h (2 Bft) SO 138 ? 0 min 4 W/m? 10,7 ?C 8,0 km/h (2 Bft)
28.05.2024 20:48 13,5 ?C 14,1 ?C 12,8 ?C 84 % 1017,3 hPa 0,0 l/m? 5,7 km/h (2 Bft) O-SO 123 ? 0 min 4 W/m? 10,8 ?C 9,7 km/h (2 Bft)
28.05.2024 20:51 13,5 ?C 14,1 ?C 12,7 ?C 85 % 1017,3 hPa 0,0 l/m? 4,8 km/h (1 Bft) O-SO 117 ? 0 min 2 W/m? 11,0 ?C 8,0 km/h (2 Bft)
28.05.2024 20:54 13,4 ?C 14,2 ?C 12,6 ?C 85 % 1017,3 hPa 0,2 l/m? 4,0 km/h (1 Bft) O-SO 119 ? 0 min 2 W/m? 10,9 ?C 6,4 km/h (2 Bft)
28.05.2024 20:57 13,4 ?C 14,1 ?C 12,5 ?C 86 % 1017,3 hPa 0,0 l/m? 4,2 km/h (1 Bft) SO 132 ? 0 min 2 W/m? 11,1 ?C 6,4 km/h (2 Bft)
28.05.2024 21:00 13,3 ?C 14,2 ?C 12,3 ?C 86 % 1017,2 hPa 0,2 l/m? 3,3 km/h (1 Bft) O-SO 122 ? 0 min 2 W/m? 11,0 ?C 6,4 km/h (2 Bft)
28.05.2024 21:03 13,3 ?C 14,1 ?C 12,2 ?C 87 % 1017,2 hPa 0,2 l/m? 3,7 km/h (1 Bft) O 90 ? 0 min 2 W/m? 11,2 ?C 6,4 km/h (2 Bft)
28.05.2024 21:06 13,3 ?C 14,1 ?C 12,2 ?C 87 % 1017,1 hPa 0,0 l/m? 2,6 km/h (1 Bft) O 85 ? 0 min 2 W/m? 11,2 ?C 4,8 km/h (1 Bft)
28.05.2024 21:09 13,3 ?C 14,0 ?C 12,2 ?C 87 % 1017,1 hPa 0,0 l/m? 2,4 km/h (1 Bft) O 80 ? 0 min 1 W/m? 11,2 ?C 3,2 km/h (1 Bft)
28.05.2024 21:12 13,3 ?C 14,1 ?C 12,3 ?C 87 % 1017,1 hPa 0,0 l/m? 1,3 km/h (1 Bft) O-NO 72 ? 0 min 0 W/m? 11,2 ?C 3,2 km/h (1 Bft)
28.05.2024 21:15 13,2 ?C 14,2 ?C 12,3 ?C 87 % 1017,2 hPa 0,2 l/m? 1,1 km/h (1 Bft) O 80 ? 0 min 0 W/m? 11,1 ?C 3,2 km/h (1 Bft)
28.05.2024 21:18 13,2 ?C 14,3 ?C 12,2 ?C 88 % 1017,3 hPa 0,0 l/m? 3,3 km/h (1 Bft) SW 224 ? 0 min 0 W/m? 11,3 ?C 6,4 km/h (2 Bft)
28.05.2024 21:21 13,1 ?C 14,2 ?C 12,3 ?C 88 % 1017,3 hPa 0,0 l/m? 3,1 km/h (1 Bft) S 186 ? 0 min 0 W/m? 11,2 ?C 6,4 km/h (2 Bft)
28.05.2024 21:24 13,0 ?C 13,9 ?C 12,3 ?C 88 % 1017,4 hPa 0,0 l/m? 2,3 km/h (1 Bft) S-SW 192 ? 0 min 0 W/m? 11,1 ?C 4,8 km/h (1 Bft)
28.05.2024 21:27 13,0 ?C 13,9 ?C 12,3 ?C 88 % 1017,5 hPa 0,0 l/m? 3,1 km/h (1 Bft) S-SW 210 ? 0 min 0 W/m? 11,1 ?C 6,4 km/h (2 Bft)
28.05.2024 21:30 13,0 ?C 13,9 ?C 12,3 ?C 89 % 1017,5 hPa 0,0 l/m? 2,0 km/h (1 Bft) S-SW 210 ? 0 min 0 W/m? 11,2 ?C 3,2 km/h (1 Bft)
28.05.2024 21:33 12,9 ?C 14,0 ?C 12,3 ?C 89 % 1017,5 hPa 0,0 l/m? 2,6 km/h (1 Bft) SW 219 ? 0 min 0 W/m? 11,1 ?C 4,8 km/h (1 Bft)
28.05.2024 21:36 13,0 ?C 14,1 ?C 12,3 ?C 89 % 1017,5 hPa 0,0 l/m? 0,4 km/h (0 Bft) SW 226 ? 0 min 0 W/m? 11,2 ?C 4,8 km/h (1 Bft)
28.05.2024 21:39 13,0 ?C 14,3 ?C 12,3 ?C 89 % 1017,5 hPa 0,0 l/m? 2,9 km/h (1 Bft) SW 230 ? 0 min 0 W/m? 11,2 ?C 4,8 km/h (1 Bft)
28.05.2024 21:42 13,0 ?C 14,5 ?C 12,4 ?C 89 % 1017,5 hPa 0,0 l/m? 1,7 km/h (1 Bft) SW 220 ? 0 min 0 W/m? 11,2 ?C 3,2 km/h (1 Bft)
28.05.2024 21:45 13,0 ?C 14,2 ?C 12,4 ?C 89 % 1017,6 hPa 0,0 l/m? 1,2 km/h (1 Bft) SW 227 ? 0 min 0 W/m? 11,2 ?C 3,2 km/h (1 Bft)
28.05.2024 21:48 13,0 ?C 14,0 ?C 12,4 ?C 90 % 1017,6 hPa 0,0 l/m? 2,2 km/h (1 Bft) SW 221 ? 0 min 0 W/m? 11,4 ?C 4,8 km/h (1 Bft)
28.05.2024 21:51 13,0 ?C 13,8 ?C 12,3 ?C 90 % 1017,6 hPa 0,0 l/m? 2,3 km/h (1 Bft) SW 227 ? 0 min 0 W/m? 11,4 ?C 4,8 km/h (1 Bft)
28.05.2024 21:54 12,9 ?C 13,9 ?C 12,3 ?C 90 % 1017,6 hPa 0,0 l/m? 1,5 km/h (1 Bft) SW 223 ? 0 min 0 W/m? 11,3 ?C 3,2 km/h (1 Bft)
28.05.2024 21:57 12,9 ?C 13,7 ?C 12,2 ?C 90 % 1017,6 hPa 0,0 l/m? 1,3 km/h (1 Bft) W 278 ? 0 min 0 W/m? 11,3 ?C 3,2 km/h (1 Bft)
28.05.2024 22:00 12,8 ?C 13,7 ?C 12,1 ?C 90 % 1017,6 hPa 0,0 l/m? 1,9 km/h (1 Bft) W-NW 284 ? 0 min 0 W/m? 11,2 ?C 3,2 km/h (1 Bft)
28.05.2024 22:03 12,8 ?C 13,8 ?C 12,0 ?C 90 % 1017,7 hPa 0,0 l/m? 2,9 km/h (1 Bft) W 274 ? 0 min 0 W/m? 11,2 ?C 4,8 km/h (1 Bft)
28.05.2024 22:06 12,7 ?C 14,0 ?C 11,9 ?C 90 % 1017,7 hPa 0,0 l/m? 2,9 km/h (1 Bft) W-SW 243 ? 0 min 0 W/m? 11,1 ?C 6,4 km/h (2 Bft)
28.05.2024 22:09 12,6 ?C 13,7 ?C 11,8 ?C 90 % 1017,8 hPa 0,0 l/m? 3,1 km/h (1 Bft) W-SW 239 ? 0 min 0 W/m? 11,0 ?C 4,8 km/h (1 Bft)
28.05.2024 22:12 12,6 ?C 13,6 ?C 11,8 ?C 90 % 1017,8 hPa 0,0 l/m? 3,6 km/h (1 Bft) W-SW 242 ? 0 min 0 W/m? 11,0 ?C 6,4 km/h (2 Bft)
_ Min-Zeit 22:09 22:12 22:09 16:12 04:06 - 06:06 - - - - 20:36 05:57
Minimum _ 12,6 ?C 13,6 ?C 11,8 ?C 73 % 1013,3 hPa - 0,0 km/h (0 Bft) - - - - 10,5 ?C 1,6 km/h (1 Bft)
_ Max-Zeit 15:54 15:45 10:48 04:15 22:09 10:24 10:54 - - 10:48 15:45 23:00 09:48
Maximum _ 18,5 ?C 21,4 ?C 22,5 ?C 92 % 1017,8 hPa 0,4 l/m? 16,0 km/h
W (3 Bft)
- - 3 min 597 W/m? 15,4 ?C 25,7 km/h
W-SW (4 Bft)
Durchschnitt _ 15,9 ?C 17,0 ?C 16,6 ?C 87 % 1015,6 hPa #3,4 l/m? 5,6 km/h (2 Bft) W - #33 min. 113 W/m? 13,6 ?C 10,4 km/h (2 Bft)